Observation data for Dozier on 03/13/2018      Previous  Date  Next       Current Mesonet Observations  Soil Data  Daily Summary Page  Observations in Plain Language
KDO1 130500Z 16000KT 05/M06 A3027 RMK A01 T00531055  RH  045%=      5-min Rain = 0
KDO1 130501Z 00000KT 05/M06 A3027 RMK A01 T00531056  RH  045%=      5-min Rain = 0
KDO1 130502Z 00000KT 05/M06 A3027 RMK A01 T00531056  RH  045%=      5-min Rain = 0
KDO1 130503Z 19000KT 05/M06 A3027 RMK A01 T00531055  RH  045%=      5-min Rain = 0
KDO1 130504Z 18000KT 05/M06 A3027 RMK A01 T00531056  RH  045%=      5-min Rain = 0
KDO1 130505Z 00000KT 05/M06 A3027 RMK A01 T00531056  RH  045%=      5-min Rain = 0
KDO1 130506Z 00000KT 05/M06 A3027 RMK A01 T00531056  RH  045%=      5-min Rain = 0
KDO1 130507Z 00000KT 05/M06 A3027 RMK A01 T00521056  RH  045%=      5-min Rain = 0
KDO1 130508Z 00000KT 05/M06 A3027 RMK A01 T00521056  RH  045%=      5-min Rain = 0
KDO1 130509Z 00000KT 05/M06 A3027 RMK A01 T00521056  RH  046%=      5-min Rain = 0
KDO1 130510Z 18000KT 05/M06 A3027 RMK A01 T00511055  RH  046%=      5-min Rain = 0
KDO1 130511Z 18000KT 05/M06 A3027 RMK A01 T00511056  RH  046%=      5-min Rain = 0
KDO1 130512Z 04000KT 05/M06 A3027 RMK A01 T00511056  RH  046%=      5-min Rain = 0
KDO1 130513Z 04000KT 05/M06 A3027 RMK A01 T00511056  RH  046%=      5-min Rain = 0
KDO1 130514Z 11000KT 05/M06 A3027 RMK A01 T00521056  RH  046%=      5-min Rain = 0
KDO1 130515Z 10000KT 05/M06 A3027 RMK A01 T00521056  RH  046%=      5-min Rain = 0
KDO1 130516Z 08000KT 05/M06 A3027 RMK A01 T00521056  RH  046%=      5-min Rain = 0
KDO1 130517Z 08000KT 05/M06 A3027 RMK A01 T00521056  RH  046%=      5-min Rain = 0
KDO1 130518Z 09001KT 05/M06 A3027 RMK A01 T00511056  RH  046%=      5-min Rain = 0
KDO1 130519Z 09001KT 05/M06 A3027 RMK A01 T00511056  RH  046%=      5-min Rain = 0
KDO1 130520Z 08001KT 05/M06 A3027 RMK A01 T00511056  RH  046%=      5-min Rain = 0
KDO1 130521Z 08002KT 05/M06 A3027 RMK A01 T00511057  RH  046%=      5-min Rain = 0
KDO1 130522Z 07002KT 05/M06 A3027 RMK A01 T00511057  RH  046%=      5-min Rain = 0
KDO1 130523Z 06002KT 05/M06 A3027 RMK A01 T00511057  RH  046%=      5-min Rain = 0
KDO1 130524Z 06002KT 05/M06 A3027 RMK A01 T00501057  RH  046%=      5-min Rain = 0
KDO1 130525Z 06002KT 05/M06 A3027 RMK A01 T00501057  RH  046%=      5-min Rain = 0
KDO1 130526Z 06002KT 05/M06 A3027 RMK A01 T00491057  RH  046%=      5-min Rain = 0
KDO1 130527Z 06002KT 05/M06 A3027 RMK A01 T00491057  RH  046%=      5-min Rain = 0
KDO1 130528Z 06001KT 05/M06 A3027 RMK A01 T00481058  RH  046%=      5-min Rain = 0
KDO1 130529Z 06002KT 05/M06 A3027 RMK A01 T00481058  RH  046%=      5-min Rain = 0
KDO1 130530Z 06002KT 05/M06 A3027 RMK A01 T00471059  RH  046%=      5-min Rain = 0
KDO1 130531Z 06002KT 05/M06 A3027 RMK A01 T00451060  RH  046%=      5-min Rain = 0
KDO1 130532Z 06003KT 04/M06 A3027 RMK A01 T00431060  RH  047%=      5-min Rain = 0
KDO1 130533Z 06003KT 04/M06 A3027 RMK A01 T00431060  RH  047%=      5-min Rain = 0
KDO1 130534Z 06003KT 04/M06 A3027 RMK A01 T00421059  RH  048%=      5-min Rain = 0
KDO1 130535Z 06003KT 04/M06 A3027 RMK A01 T00421059  RH  048%=      5-min Rain = 0
KDO1 130536Z 06003KT 04/M06 A3027 RMK A01 T00421059  RH  048%=      5-min Rain = 0
KDO1 130537Z 05004KT 04/M06 A3027 RMK A01 T00421059  RH  048%=      5-min Rain = 0
KDO1 130538Z 06004KT 04/M06 A3027 RMK A01 T00421059  RH  048%=      5-min Rain = 0
KDO1 130539Z 06004KT 04/M06 A3027 RMK A01 T00411059  RH  048%=      5-min Rain = 0
KDO1 130540Z 06004KT 04/M06 A3027 RMK A01 T00401059  RH  048%=      5-min Rain = 0
KDO1 130541Z 06004KT 04/M06 A3027 RMK A01 T00401059  RH  048%=      5-min Rain = 0
KDO1 130542Z 06004KT 04/M06 A3027 RMK A01 T00391059  RH  049%=      5-min Rain = 0
KDO1 130543Z 07003KT 04/M06 A3027 RMK A01 T00391059  RH  049%=      5-min Rain = 0
KDO1 130544Z 07004KT 04/M06 A3027 RMK A01 T00391059  RH  049%=      5-min Rain = 0
KDO1 130545Z 07004KT 04/M06 A3027 RMK A01 T00391059  RH  049%=      5-min Rain = 0
KDO1 130546Z 07003KT 04/M06 A3027 RMK A01 T00391058  RH  049%=      5-min Rain = 0
KDO1 130547Z 07003KT 04/M06 A3027 RMK A01 T00391059  RH  049%=      5-min Rain = 0
KDO1 130548Z 07003KT 04/M06 A3027 RMK A01 T00391060  RH  049%=      5-min Rain = 0
KDO1 130549Z 06003KT 04/M06 A3027 RMK A01 T00371061  RH  049%=      5-min Rain = 0
KDO1 130550Z 06004KT 04/M06 A3027 RMK A01 T00361061  RH  049%=      5-min Rain = 0
KDO1 130551Z 05005KT 04/M06 A3027 RMK A01 T00351060  RH  050%=      5-min Rain = 0
KDO1 130552Z 04005KT 03/M06 A3027 RMK A01 T00341061  RH  050%=      5-min Rain = 0
KDO1 130553Z 05005KT 03/M06 A3027 RMK A01 T00331062  RH  050%=      5-min Rain = 0
KDO1 130554Z 05004KT 03/M06 A3027 RMK A01 T00321062  RH  050%=      5-min Rain = 0
KDO1 130555Z 04004KT 03/M06 A3027 RMK A01 T00321061  RH  051%=      5-min Rain = 0
KDO1 130556Z 04004KT 03/M06 A3027 RMK A01 T00321060  RH  051%=      5-min Rain = 0
KDO1 130557Z 05004KT 03/M06 A3027 RMK A01 T00311060  RH  051%=      5-min Rain = 0
KDO1 130558Z 05004KT 03/M06 A3027 RMK A01 T00311060  RH  051%=      5-min Rain = 0
KDO1 130559Z 05004KT 03/M06 A3027 RMK A01 T00321060  RH  051%=      5-min Rain = 0
KDO1 130600Z 04003KT 03/M06 A3027 RMK A01 T00321060  RH  051%=      5-min Rain = 0
KDO1 130601Z 05003KT 03/M06 A3027 RMK A01 T00331060  RH  051%=      5-min Rain = 0
KDO1 130602Z 05003KT 03/M06 A3027 RMK A01 T00321060  RH  051%=      5-min Rain = 0
KDO1 130603Z 05003KT 03/M06 A3027 RMK A01 T00321060  RH  051%=      5-min Rain = 0
KDO1 130604Z 05003KT 03/M06 A3027 RMK A01 T00321060  RH  051%=      5-min Rain = 0
KDO1 130605Z 06004KT 03/M06 A3027 RMK A01 T00331058  RH  051%=      5-min Rain = 0
KDO1 130606Z 06003KT 04/M06 A3027 RMK A01 T00351057  RH  051%=      5-min Rain = 0
KDO1 130607Z 06003KT 04/M06 A3027 RMK A01 T00351058  RH  050%=      5-min Rain = 0
KDO1 130608Z 06002KT 04/M06 A3027 RMK A01 T00351058  RH  050%=      5-min Rain = 0
KDO1 130609Z 07002KT 04/M06 A3027 RMK A01 T00351059  RH  050%=      5-min Rain = 0
KDO1 130610Z 05003KT 04/M06 A3027 RMK A01 T00351058  RH  051%=      5-min Rain = 0
KDO1 130611Z 05003KT 03/M06 A3027 RMK A01 T00341059  RH  051%=      5-min Rain = 0
KDO1 130612Z 05002KT 03/M06 A3027 RMK A01 T00341059  RH  051%=      5-min Rain = 0
KDO1 130613Z 04003KT 03/M06 A3027 RMK A01 T00331060  RH  051%=      5-min Rain = 0
KDO1 130614Z 04003KT 03/M06 A3027 RMK A01 T00321059  RH  051%=      5-min Rain = 0
KDO1 130615Z 04004KT 03/M06 A3027 RMK A01 T00321059  RH  051%=      5-min Rain = 0
KDO1 130616Z 04004KT 03/M06 A3027 RMK A01 T00321059  RH  051%=      5-min Rain = 0
KDO1 130617Z 04003KT 03/M06 A3027 RMK A01 T00311060  RH  052%=      5-min Rain = 0
KDO1 130618Z 04003KT 03/M06 A3027 RMK A01 T00311059  RH  052%=      5-min Rain = 0
KDO1 130619Z 04003KT 03/M06 A3028 RMK A01 T00301059  RH  052%=      5-min Rain = 0
KDO1 130620Z 03003KT 03/M06 A3028 RMK A01 T00301059  RH  052%=      5-min Rain = 0
KDO1 130621Z 02003KT 03/M06 A3028 RMK A01 T00301059  RH  052%=      5-min Rain = 0
KDO1 130622Z 03003KT 03/M06 A3028 RMK A01 T00301058  RH  052%=      5-min Rain = 0
KDO1 130623Z 02003KT 03/M06 A3028 RMK A01 T00311058  RH  052%=      5-min Rain = 0
KDO1 130624Z 02003KT 03/M06 A3028 RMK A01 T00301058  RH  052%=      5-min Rain = 0
KDO1 130625Z 02004KT 03/M06 A3028 RMK A01 T00311058  RH  052%=      5-min Rain = 0
KDO1 130626Z 03004KT 03/M06 A3028 RMK A01 T00311057  RH  052%=      5-min Rain = 0
KDO1 130627Z 03004KT 03/M06 A3028 RMK A01 T00311058  RH  052%=      5-min Rain = 0
KDO1 130628Z 03004KT 03/M06 A3028 RMK A01 T00311058  RH  052%=      5-min Rain = 0
KDO1 130629Z 03004KT 03/M06 A3028 RMK A01 T00311058  RH  052%=      5-min Rain = 0
KDO1 130630Z 03003KT 03/M06 A3028 RMK A01 T00301058  RH  052%=      5-min Rain = 0
KDO1 130631Z 03004KT 03/M06 A3028 RMK A01 T00301059  RH  052%=      5-min Rain = 0
KDO1 130632Z 04003KT 03/M06 A3028 RMK A01 T00301058  RH  053%=      5-min Rain = 0
KDO1 130633Z 03003KT 03/M06 A3028 RMK A01 T00301058  RH  053%=      5-min Rain = 0
KDO1 130634Z 05004KT 03/M06 A3028 RMK A01 T00311057  RH  053%=      5-min Rain = 0
KDO1 130635Z 04004KT 03/M06 A3028 RMK A01 T00321056  RH  052%=      5-min Rain = 0
KDO1 130636Z 03004KT 03/M06 A3028 RMK A01 T00331056  RH  052%=      5-min Rain = 0
KDO1 130637Z 03004KT 03/M06 A3028 RMK A01 T00331056  RH  052%=      5-min Rain = 0
KDO1 130638Z 03004KT 03/M06 A3028 RMK A01 T00331056  RH  052%=      5-min Rain = 0
KDO1 130639Z 02004KT 03/M06 A3028 RMK A01 T00331056  RH  052%=      5-min Rain = 0
KDO1 130640Z 04005KT 03/M06 A3028 RMK A01 T00321057  RH  052%=      5-min Rain = 0
KDO1 130641Z 04005KT 03/M06 A3028 RMK A01 T00321056  RH  052%=      5-min Rain = 0
KDO1 130642Z 03005KT 03/M06 A3028 RMK A01 T00321056  RH  052%=      5-min Rain = 0
KDO1 130643Z 03005KT 03/M06 A3028 RMK A01 T00331056  RH  052%=      5-min Rain = 0
KDO1 130644Z 03005KT 03/M06 A3028 RMK A01 T00341056  RH  052%=      5-min Rain = 0
KDO1 130645Z 03006KT 03/M06 A3028 RMK A01 T00331056  RH  052%=      5-min Rain = 0
KDO1 130646Z 04005KT 03/M06 A3029 RMK A01 T00331056  RH  052%=      5-min Rain = 0
KDO1 130647Z 03005KT 03/M06 A3029 RMK A01 T00331056  RH  052%=      5-min Rain = 0
KDO1 130648Z 04005KT 03/M06 A3029 RMK A01 T00331056  RH  052%=      5-min Rain = 0
KDO1 130649Z 04005KT 03/M06 A3029 RMK A01 T00331055  RH  052%=      5-min Rain = 0
KDO1 130650Z 04004KT 03/M06 A3029 RMK A01 T00331056  RH  052%=      5-min Rain = 0
KDO1 130651Z 05004KT 03/M06 A3029 RMK A01 T00331055  RH  052%=      5-min Rain = 0
KDO1 130652Z 05004KT 03/M06 A3028 RMK A01 T00341055  RH  052%=      5-min Rain = 0
KDO1 130653Z 05004KT 03/M06 A3028 RMK A01 T00341055  RH  052%=      5-min Rain = 0
KDO1 130654Z 05003KT 03/M06 A3028 RMK A01 T00341055  RH  052%=      5-min Rain = 0
KDO1 130655Z 06003KT 03/M06 A3028 RMK A01 T00341056  RH  052%=      5-min Rain = 0
KDO1 130656Z 06003KT 03/M06 A3028 RMK A01 T00331056  RH  052%=      5-min Rain = 0
KDO1 130657Z 07004KT 03/M06 A3028 RMK A01 T00331056  RH  052%=      5-min Rain = 0
KDO1 130658Z 06004KT 04/M06 A3028 RMK A01 T00351055  RH  052%=      5-min Rain = 0
KDO1 130659Z 06005KT 04/M05 A3028 RMK A01 T00371054  RH  051%=      5-min Rain = 0
KDO1 130700Z 04005KT 04/M05 A3029 RMK A01 T00391054  RH  051%=      5-min Rain = 0
KDO1 130701Z 04005KT 04/M05 A3029 RMK A01 T00391054  RH  051%=      5-min Rain = 0
KDO1 130702Z 03006KT 04/M05 A3029 RMK A01 T00391054  RH  050%=      5-min Rain = 0
KDO1 130703Z 04007KT 04/M06 A3029 RMK A01 T00381055  RH  051%=      5-min Rain = 0
KDO1 130704Z 04008KT 04/M06 A3029 RMK A01 T00351056  RH  051%=      5-min Rain = 0
KDO1 130705Z 04007KT 03/M06 A3029 RMK A01 T00331057  RH  052%=      5-min Rain = 0
KDO1 130706Z 04005KT 03/M06 A3029 RMK A01 T00311057  RH  053%=      5-min Rain = 0
KDO1 130707Z 05005KT 03/M06 A3029 RMK A01 T00311056  RH  053%=      5-min Rain = 0
KDO1 130708Z 05007KT 03/M06 A3029 RMK A01 T00311056  RH  053%=      5-min Rain = 0
KDO1 130709Z 05007KT 03/M06 A3029 RMK A01 T00311056  RH  053%=      5-min Rain = 0
KDO1 130710Z 04006KT 03/M06 A3029 RMK A01 T00311056  RH  053%=      5-min Rain = 0
KDO1 130711Z 04006KT 03/M06 A3029 RMK A01 T00311057  RH  053%=      5-min Rain = 0
KDO1 130712Z 04006KT 03/M06 A3029 RMK A01 T00301057  RH  053%=      5-min Rain = 0
KDO1 130713Z 04007KT 03/M06 A3029 RMK A01 T00311056  RH  053%=      5-min Rain = 0
KDO1 130714Z 04007KT 03/M06 A3029 RMK A01 T00311057  RH  053%=      5-min Rain = 0
KDO1 130715Z 04006KT 03/M06 A3029 RMK A01 T00301057  RH  053%=      5-min Rain = 0
KDO1 130716Z 03006KT 03/M06 A3029 RMK A01 T00291057  RH  053%=      5-min Rain = 0
KDO1 130717Z 03005KT 03/M06 A3029 RMK A01 T00291057  RH  053%=      5-min Rain = 0
KDO1 130718Z 04006KT 03/M06 A3029 RMK A01 T00291057  RH  053%=      5-min Rain = 0
KDO1 130719Z 04005KT 03/M06 A3029 RMK A01 T00281057  RH  053%=      5-min Rain = 0
KDO1 130720Z 04006KT 03/M06 A3029 RMK A01 T00281058  RH  053%=      5-min Rain = 0
KDO1 130721Z 04006KT 03/M06 A3029 RMK A01 T00281057  RH  053%=      5-min Rain = 0
KDO1 130722Z 04006KT 03/M06 A3029 RMK A01 T00281057  RH  053%=      5-min Rain = 0
KDO1 130723Z 04005KT 03/M06 A3029 RMK A01 T00291057  RH  053%=      5-min Rain = 0
KDO1 130724Z 04005KT 03/M06 A3029 RMK A01 T00301056  RH  053%=      5-min Rain = 0
KDO1 130725Z 04005KT 03/M06 A3029 RMK A01 T00301057  RH  053%=      5-min Rain = 0
KDO1 130726Z 04004KT 03/M06 A3029 RMK A01 T00301056  RH  053%=      5-min Rain = 0
KDO1 130727Z 04005KT 03/M06 A3029 RMK A01 T00291057  RH  053%=      5-min Rain = 0
KDO1 130728Z 04005KT 03/M06 A3029 RMK A01 T00281058  RH  053%=      5-min Rain = 0
KDO1 130729Z 03005KT 03/M06 A3029 RMK A01 T00271058  RH  053%=      5-min Rain = 0
KDO1 130730Z 04005KT 03/M06 A3029 RMK A01 T00261058  RH  054%=      5-min Rain = 0
KDO1 130731Z 03005KT 03/M06 A3029 RMK A01 T00261057  RH  054%=      5-min Rain = 0
KDO1 130732Z 04004KT 03/M06 A3029 RMK A01 T00261057  RH  054%=      5-min Rain = 0
KDO1 130733Z 03004KT 03/M06 A3029 RMK A01 T00271057  RH  054%=      5-min Rain = 0
KDO1 130734Z 03005KT 03/M06 A3029 RMK A01 T00271058  RH  054%=      5-min Rain = 0
KDO1 130735Z 03005KT 03/M06 A3029 RMK A01 T00271058  RH  054%=      5-min Rain = 0
KDO1 130736Z 03005KT 03/M06 A3029 RMK A01 T00271058  RH  054%=      5-min Rain = 0
KDO1 130737Z 03005KT 03/M06 A3029 RMK A01 T00271057  RH  054%=      5-min Rain = 0
KDO1 130738Z 03006KT 03/M06 A3029 RMK A01 T00271056  RH  054%=      5-min Rain = 0
KDO1 130739Z 03006KT 03/M06 A3029 RMK A01 T00281055  RH  054%=      5-min Rain = 0
KDO1 130740Z 03006KT 03/M06 A3029 RMK A01 T00301055  RH  054%=      5-min Rain = 0
KDO1 130741Z 04006KT 03/M06 A3029 RMK A01 T00301055  RH  054%=      5-min Rain = 0
KDO1 130742Z 04006KT 03/M06 A3029 RMK A01 T00311055  RH  053%=      5-min Rain = 0
KDO1 130743Z 04005KT 03/M05 A3029 RMK A01 T00321054  RH  053%=      5-min Rain = 0
KDO1 130744Z 03004KT 03/M05 A3029 RMK A01 T00331053  RH  053%=      5-min Rain = 0
KDO1 130745Z 03005KT 03/M05 A3029 RMK A01 T00331054  RH  053%=      5-min Rain = 0
KDO1 130746Z 02005KT 03/M05 A3029 RMK A01 T00331054  RH  053%=      5-min Rain = 0
KDO1 130747Z 02005KT 03/M06 A3029 RMK A01 T00321055  RH  053%=      5-min Rain = 0
KDO1 130748Z 02006KT 03/M06 A3029 RMK A01 T00301056  RH  053%=      5-min Rain = 0
KDO1 130749Z 02006KT 03/M06 A3029 RMK A01 T00291057  RH  053%=      5-min Rain = 0
KDO1 130750Z 03006KT 03/M06 A3029 RMK A01 T00291056  RH  054%=      5-min Rain = 0
KDO1 130751Z 03006KT 03/M06 A3029 RMK A01 T00281056  RH  054%=      5-min Rain = 0
KDO1 130752Z 03006KT 03/M06 A3029 RMK A01 T00281056  RH  054%=      5-min Rain = 0
KDO1 130753Z 03007KT 03/M06 A3029 RMK A01 T00271056  RH  054%=      5-min Rain = 0
KDO1 130754Z 03007KT 03/M06 A3029 RMK A01 T00281055  RH  054%=      5-min Rain = 0
KDO1 130755Z 02007KT 03/M06 A3029 RMK A01 T00291055  RH  054%=      5-min Rain = 0
KDO1 130756Z 02008KT 03/M06 A3029 RMK A01 T00291055  RH  054%=      5-min Rain = 0
KDO1 130757Z 02008KT 03/M06 A3029 RMK A01 T00301055  RH  054%=      5-min Rain = 0
KDO1 130758Z 02008KT 03/M06 A3029 RMK A01 T00301055  RH  054%=      5-min Rain = 0
KDO1 130759Z 02008KT 03/M06 A3029 RMK A01 T00301055  RH  053%=      5-min Rain = 0
KDO1 130800Z 02008KT 03/M06 A3029 RMK A01 T00301055  RH  054%=      5-min Rain = 0
KDO1 130801Z 02008KT 03/M06 A3029 RMK A01 T00301055  RH  054%=      5-min Rain = 0
KDO1 130802Z 02007KT 03/M06 A3029 RMK A01 T00301055  RH  054%=      5-min Rain = 0
KDO1 130803Z 02008KT 03/M06 A3029 RMK A01 T00291055  RH  054%=      5-min Rain = 0
KDO1 130804Z 02008KT 03/M06 A3029 RMK A01 T00291055  RH  054%=      5-min Rain = 0
KDO1 130805Z 02008KT 03/M06 A3029 RMK A01 T00291056  RH  054%=      5-min Rain = 0
KDO1 130806Z 02008KT 03/M06 A3029 RMK A01 T00291056  RH  054%=      5-min Rain = 0
KDO1 130807Z 02009KT 03/M06 A3029 RMK A01 T00291056  RH  054%=      5-min Rain = 0
KDO1 130808Z 02008KT 03/M06 A3029 RMK A01 T00291056  RH  054%=      5-min Rain = 0
KDO1 130809Z 02008KT 03/M06 A3029 RMK A01 T00291056  RH  054%=      5-min Rain = 0
KDO1 130810Z 02008KT 03/M06 A3029 RMK A01 T00291056  RH  054%=      5-min Rain = 0
KDO1 130811Z 01007KT 03/M06 A3029 RMK A01 T00281056  RH  054%=      5-min Rain = 0
KDO1 130812Z 02007KT 03/M06 A3029 RMK A01 T00281056  RH  054%=      5-min Rain = 0
KDO1 130813Z 01008KT 03/M06 A3029 RMK A01 T00271057  RH  054%=      5-min Rain = 0
KDO1 130814Z 01008KT 03/M06 A3029 RMK A01 T00271057  RH  054%=      5-min Rain = 0
KDO1 130815Z 02008KT 03/M06 A3029 RMK A01 T00271057  RH  054%=      5-min Rain = 0
KDO1 130816Z 02008KT 03/M06 A3029 RMK A01 T00271057  RH  054%=      5-min Rain = 0
KDO1 130817Z 02008KT 03/M06 A3029 RMK A01 T00261057  RH  054%=      5-min Rain = 0
KDO1 130818Z 02008KT 03/M06 A3029 RMK A01 T00261057  RH  054%=      5-min Rain = 0
KDO1 130819Z 02007KT 03/M06 A3029 RMK A01 T00261057  RH  054%=      5-min Rain = 0
KDO1 130820Z 02007KT 03/M06 A3029 RMK A01 T00261057  RH  054%=      5-min Rain = 0
KDO1 130821Z 02007KT 03/M06 A3029 RMK A01 T00251058  RH  054%=      5-min Rain = 0
KDO1 130822Z 02006KT 03/M06 A3029 RMK A01 T00251058  RH  054%=      5-min Rain = 0
KDO1 130823Z 02007KT 03/M06 A3029 RMK A01 T00251058  RH  054%=      5-min Rain = 0
KDO1 130824Z 02007KT 03/M06 A3029 RMK A01 T00251058  RH  054%=      5-min Rain = 0
KDO1 130825Z 03007KT 03/M06 A3029 RMK A01 T00251058  RH  054%=      5-min Rain = 0
KDO1 130826Z 03007KT 03/M06 A3029 RMK A01 T00251058  RH  054%=      5-min Rain = 0
KDO1 130827Z 03006KT 02/M06 A3029 RMK A01 T00241059  RH  054%=      5-min Rain = 0
KDO1 130828Z 03006KT 02/M06 A3029 RMK A01 T00241059  RH  054%=      5-min Rain = 0
KDO1 130829Z 03006KT 02/M06 A3029 RMK A01 T00241059  RH  054%=      5-min Rain = 0
KDO1 130830Z 03006KT 02/M06 A3029 RMK A01 T00241059  RH  054%=      5-min Rain = 0
KDO1 130831Z 03006KT 02/M06 A3029 RMK A01 T00241059  RH  054%=      5-min Rain = 0
KDO1 130832Z 03006KT 03/M06 A3029 RMK A01 T00251059  RH  054%=      5-min Rain = 0
KDO1 130833Z 03006KT 03/M06 A3029 RMK A01 T00251059  RH  054%=      5-min Rain = 0
KDO1 130834Z 04006KT 03/M06 A3029 RMK A01 T00251060  RH  054%=      5-min Rain = 0
KDO1 130835Z 03006KT 03/M06 A3028 RMK A01 T00251059  RH  054%=      5-min Rain = 0
KDO1 130836Z 03005KT 03/M06 A3028 RMK A01 T00251059  RH  054%=      5-min Rain = 0
KDO1 130837Z 03005KT 02/M06 A3028 RMK A01 T00241060  RH  054%=      5-min Rain = 0
KDO1 130838Z 03005KT 02/M06 A3028 RMK A01 T00241060  RH  054%=      5-min Rain = 0
KDO1 130839Z 03005KT 02/M06 A3028 RMK A01 T00241060  RH  054%=      5-min Rain = 0
KDO1 130840Z 03005KT 02/M06 A3028 RMK A01 T00241060  RH  054%=      5-min Rain = 0
KDO1 130841Z 04005KT 02/M06 A3028 RMK A01 T00231060  RH  054%=      5-min Rain = 0
KDO1 130842Z 03005KT 02/M06 A3028 RMK A01 T00231060  RH  054%=      5-min Rain = 0
KDO1 130843Z 04004KT 02/M06 A3028 RMK A01 T00241060  RH  054%=      5-min Rain = 0
KDO1 130844Z 04003KT 02/M06 A3028 RMK A01 T00241060  RH  054%=      5-min Rain = 0
KDO1 130845Z 04003KT 02/M06 A3028 RMK A01 T00241061  RH  053%=      5-min Rain = 0
KDO1 130846Z 04003KT 03/M06 A3028 RMK A01 T00251060  RH  053%=      5-min Rain = 0
KDO1 130847Z 05003KT 03/M06 A3028 RMK A01 T00261060  RH  053%=      5-min Rain = 0
KDO1 130848Z 06003KT 03/M06 A3028 RMK A01 T00261061  RH  053%=      5-min Rain = 0
KDO1 130849Z 05003KT 03/M06 A3028 RMK A01 T00251061  RH  053%=      5-min Rain = 0
KDO1 130850Z 04003KT 03/M06 A3028 RMK A01 T00251061  RH  053%=      5-min Rain = 0
KDO1 130851Z 04004KT 03/M06 A3028 RMK A01 T00251061  RH  053%=      5-min Rain = 0
KDO1 130852Z 04004KT 03/M06 A3028 RMK A01 T00251061  RH  053%=      5-min Rain = 0
KDO1 130853Z 04004KT 03/M06 A3028 RMK A01 T00251061  RH  053%=      5-min Rain = 0
KDO1 130854Z 05003KT 03/M06 A3028 RMK A01 T00261061  RH  053%=      5-min Rain = 0
KDO1 130855Z 04004KT 03/M06 A3028 RMK A01 T00261061  RH  053%=      5-min Rain = 0
KDO1 130856Z 04003KT 03/M06 A3028 RMK A01 T00261061  RH  053%=      5-min Rain = 0
KDO1 130857Z 04004KT 03/M06 A3028 RMK A01 T00271061  RH  052%=      5-min Rain = 0
KDO1 130858Z 04003KT 03/M06 A3028 RMK A01 T00271061  RH  052%=      5-min Rain = 0
KDO1 130859Z 05004KT 03/M06 A3027 RMK A01 T00271061  RH  052%=      5-min Rain = 0
KDO1 130900Z 04004KT 03/M06 A3027 RMK A01 T00271061  RH  052%=      5-min Rain = 0
KDO1 130901Z 04004KT 03/M06 A3027 RMK A01 T00271060  RH  052%=      5-min Rain = 0
KDO1 130902Z 04004KT 03/M06 A3027 RMK A01 T00271061  RH  052%=      5-min Rain = 0
KDO1 130903Z 04004KT 03/M06 A3027 RMK A01 T00271061  RH  052%=      5-min Rain = 0
KDO1 130904Z 05005KT 03/M06 A3027 RMK A01 T00261061  RH  052%=      5-min Rain = 0
KDO1 130905Z 04004KT 03/M06 A3027 RMK A01 T00271061  RH  052%=      5-min Rain = 0
KDO1 130906Z 04004KT 03/M06 A3027 RMK A01 T00271061  RH  052%=      5-min Rain = 0
KDO1 130907Z 04005KT 03/M06 A3027 RMK A01 T00261061  RH  052%=      5-min Rain = 0
KDO1 130908Z 04005KT 03/M06 A3027 RMK A01 T00261061  RH  053%=      5-min Rain = 0
KDO1 130909Z 05004KT 03/M06 A3027 RMK A01 T00261061  RH  053%=      5-min Rain = 0
KDO1 130910Z 05004KT 03/M06 A3027 RMK A01 T00251061  RH  053%=      5-min Rain = 0
KDO1 130911Z 05004KT 03/M06 A3027 RMK A01 T00251062  RH  053%=      5-min Rain = 0
KDO1 130912Z 05004KT 03/M06 A3027 RMK A01 T00251062  RH  053%=      5-min Rain = 0
KDO1 130913Z 05004KT 03/M06 A3027 RMK A01 T00261062  RH  053%=      5-min Rain = 0
KDO1 130914Z 05004KT 03/M06 A3027 RMK A01 T00261062  RH  053%=      5-min Rain = 0
KDO1 130915Z 05004KT 03/M06 A3027 RMK A01 T00251062  RH  052%=      5-min Rain = 0
KDO1 130916Z 04004KT 03/M06 A3027 RMK A01 T00261062  RH  053%=      5-min Rain = 0
KDO1 130917Z 04004KT 03/M06 A3027 RMK A01 T00251062  RH  053%=      5-min Rain = 0
KDO1 130918Z 04004KT 03/M06 A3028 RMK A01 T00251062  RH  053%=      5-min Rain = 0
KDO1 130919Z 03005KT 03/M06 A3028 RMK A01 T00251062  RH  053%=      5-min Rain = 0
KDO1 130920Z 03005KT 02/M06 A3028 RMK A01 T00241062  RH  053%=      5-min Rain = 0
KDO1 130921Z 03005KT 02/M06 A3028 RMK A01 T00241062  RH  053%=      5-min Rain = 0
KDO1 130922Z 02004KT 02/M06 A3028 RMK A01 T00241062  RH  053%=      5-min Rain = 0
KDO1 130923Z 02004KT 02/M06 A3028 RMK A01 T00231062  RH  053%=      5-min Rain = 0
KDO1 130924Z 02004KT 02/M06 A3028 RMK A01 T00221063  RH  053%=      5-min Rain = 0
KDO1 130925Z 02004KT 02/M06 A3028 RMK A01 T00211063  RH  054%=      5-min Rain = 0
KDO1 130926Z 02004KT 02/M06 A3028 RMK A01 T00201064  RH  054%=      5-min Rain = 0
KDO1 130927Z 02004KT 02/M06 A3028 RMK A01 T00191064  RH  054%=      5-min Rain = 0
KDO1 130928Z 02004KT 02/M07 A3028 RMK A01 T00171065  RH  054%=      5-min Rain = 0
KDO1 130929Z 02004KT 02/M06 A3028 RMK A01 T00171064  RH  055%=      5-min Rain = 0
KDO1 130930Z 02005KT 02/M06 A3028 RMK A01 T00171064  RH  055%=      5-min Rain = 0
KDO1 130931Z 02005KT 02/M06 A3028 RMK A01 T00171064  RH  055%=      5-min Rain = 0
KDO1 130932Z 02005KT 02/M06 A3029 RMK A01 T00161064  RH  055%=      5-min Rain = 0
KDO1 130933Z 02005KT 02/M06 A3029 RMK A01 T00161064  RH  055%=      5-min Rain = 0
KDO1 130934Z 02006KT 02/M06 A3029 RMK A01 T00171064  RH  055%=      5-min Rain = 0
KDO1 130935Z 02006KT 02/M06 A3029 RMK A01 T00171064  RH  055%=      5-min Rain = 0
KDO1 130936Z 02006KT 02/M06 A3029 RMK A01 T00171064  RH  055%=      5-min Rain = 0
KDO1 130937Z 02005KT 02/M06 A3029 RMK A01 T00181063  RH  055%=      5-min Rain = 0
KDO1 130938Z 01005KT 02/M06 A3029 RMK A01 T00171064  RH  055%=      5-min Rain = 0
KDO1 130939Z 02005KT 02/M06 A3029 RMK A01 T00171064  RH  055%=      5-min Rain = 0
KDO1 130940Z 02005KT 02/M06 A3029 RMK A01 T00171064  RH  055%=      5-min Rain = 0
KDO1 130941Z 02006KT 02/M06 A3029 RMK A01 T00161064  RH  055%=      5-min Rain = 0
KDO1 130942Z 03005KT 02/M06 A3029 RMK A01 T00151064  RH  055%=      5-min Rain = 0
KDO1 130943Z 02006KT 02/M06 A3029 RMK A01 T00151064  RH  056%=      5-min Rain = 0
KDO1 130944Z 02006KT 02/M06 A3029 RMK A01 T00171063  RH  056%=      5-min Rain = 0
KDO1 130945Z 03006KT 02/M06 A3029 RMK A01 T00181063  RH  055%=      5-min Rain = 0
KDO1 130946Z 03006KT 02/M06 A3029 RMK A01 T00191063  RH  055%=      5-min Rain = 0
KDO1 130947Z 02006KT 02/M06 A3029 RMK A01 T00191063  RH  054%=      5-min Rain = 0
KDO1 130948Z 02006KT 02/M06 A3029 RMK A01 T00191063  RH  054%=      5-min Rain = 0
KDO1 130949Z 02006KT 02/M06 A3029 RMK A01 T00201063  RH  054%=      5-min Rain = 0
KDO1 130950Z 02005KT 02/M06 A3029 RMK A01 T00201063  RH  054%=      5-min Rain = 0
KDO1 130951Z 02006KT 02/M06 A3029 RMK A01 T00191063  RH  054%=      5-min Rain = 0
KDO1 130952Z 02006KT 02/M06 A3029 RMK A01 T00181064  RH  054%=      5-min Rain = 0
KDO1 130953Z 01006KT 02/M06 A3029 RMK A01 T00171064  RH  055%=      5-min Rain = 0
KDO1 130954Z 01006KT 02/M06 A3029 RMK A01 T00161064  RH  055%=      5-min Rain = 0
KDO1 130955Z 01005KT 02/M06 A3029 RMK A01 T00161064  RH  055%=      5-min Rain = 0
KDO1 130956Z 02006KT 02/M07 A3029 RMK A01 T00161065  RH  055%=      5-min Rain = 0
KDO1 130957Z 02005KT 02/M07 A3029 RMK A01 T00151065  RH  055%=      5-min Rain = 0
KDO1 130958Z 02006KT 02/M06 A3029 RMK A01 T00151064  RH  056%=      5-min Rain = 0
KDO1 130959Z 01006KT 01/M07 A3029 RMK A01 T00141065  RH  056%=      5-min Rain = 0
KDO1 131000Z 01006KT 01/M07 A3029 RMK A01 T00141065  RH  056%=      5-min Rain = 0
KDO1 131001Z 01006KT 01/M07 A3029 RMK A01 T00141065  RH  056%=      5-min Rain = 0
KDO1 131002Z 01007KT 01/M07 A3029 RMK A01 T00141065  RH  056%=      5-min Rain = 0
KDO1 131003Z 02006KT 01/M07 A3029 RMK A01 T00131065  RH  056%=      5-min Rain = 0
KDO1 131004Z 02007KT 01/M07 A3029 RMK A01 T00131065  RH  056%=      5-min Rain = 0
KDO1 131005Z 02007KT 01/M07 A3029 RMK A01 T00131065  RH  056%=      5-min Rain = 0
KDO1 131006Z 01007KT 02/M06 A3029 RMK A01 T00151064  RH  056%=      5-min Rain = 0
KDO1 131007Z 02007KT 02/M06 A3029 RMK A01 T00171063  RH  055%=      5-min Rain = 0
KDO1 131008Z 01007KT 02/M06 A3029 RMK A01 T00171064  RH  055%=      5-min Rain = 0
KDO1 131009Z 01007KT 02/M06 A3029 RMK A01 T00171064  RH  055%=      5-min Rain = 0
KDO1 131010Z 01007KT 02/M06 A3029 RMK A01 T00171064  RH  055%=      5-min Rain = 0
KDO1 131011Z 01006KT 02/M07 A3029 RMK A01 T00161065  RH  055%=      5-min Rain = 0
KDO1 131012Z 01007KT 02/M07 A3029 RMK A01 T00151065  RH  055%=      5-min Rain = 0
KDO1 131013Z 02006KT 02/M07 A3029 RMK A01 T00151065  RH  055%=      5-min Rain = 0
KDO1 131014Z 02006KT 01/M07 A3029 RMK A01 T00141065  RH  056%=      5-min Rain = 0
KDO1 131015Z 02006KT 01/M07 A3029 RMK A01 T00141065  RH  056%=      5-min Rain = 0
KDO1 131016Z 02007KT 01/M07 A3029 RMK A01 T00141065  RH  056%=      5-min Rain = 0
KDO1 131017Z 01008KT 01/M07 A3029 RMK A01 T00141065  RH  056%=      5-min Rain = 0
KDO1 131018Z 01008KT 01/M07 A3029 RMK A01 T00141065  RH  056%=      5-min Rain = 0
KDO1 131019Z 02007KT 01/M07 A3029 RMK A01 T00141065  RH  056%=      5-min Rain = 0
KDO1 131020Z 01008KT 01/M07 A3029 RMK A01 T00141065  RH  056%=      5-min Rain = 0
KDO1 131021Z 01008KT 01/M07 A3029 RMK A01 T00131066  RH  056%=      5-min Rain = 0
KDO1 131022Z 01008KT 01/M07 A3029 RMK A01 T00121066  RH  056%=      5-min Rain = 0
KDO1 131023Z 01007KT 01/M07 A3029 RMK A01 T00111066  RH  056%=      5-min Rain = 0
KDO1 131024Z 01006KT 01/M07 A3029 RMK A01 T00111066  RH  056%=      5-min Rain = 0
KDO1 131025Z 01006KT 01/M07 A3029 RMK A01 T00101066  RH  057%=      5-min Rain = 0
KDO1 131026Z 00006KT 01/M07 A3029 RMK A01 T00101066  RH  057%=      5-min Rain = 0
KDO1 131027Z 00006KT 01/M07 A3029 RMK A01 T00091066  RH  057%=      5-min Rain = 0
KDO1 131028Z 01006KT 01/M07 A3029 RMK A01 T00091067  RH  057%=      5-min Rain = 0
KDO1 131029Z 01006KT 01/M07 A3029 RMK A01 T00081066  RH  057%=      5-min Rain = 0
KDO1 131030Z 01006KT 01/M07 A3029 RMK A01 T00081067  RH  057%=      5-min Rain = 0
KDO1 131031Z 02006KT 01/M07 A3029 RMK A01 T00091066  RH  057%=      5-min Rain = 0
KDO1 131032Z 02005KT 01/M07 A3029 RMK A01 T00111066  RH  057%=      5-min Rain = 0
KDO1 131033Z 02005KT 01/M07 A3029 RMK A01 T00111066  RH  056%=      5-min Rain = 0
KDO1 131034Z 03004KT 01/M07 A3029 RMK A01 T00101067  RH  056%=      5-min Rain = 0
KDO1 131035Z 03004KT 01/M07 A3029 RMK A01 T00091067  RH  057%=      5-min Rain = 0
KDO1 131036Z 03004KT 01/M07 A3029 RMK A01 T00091067  RH  057%=      5-min Rain = 0
KDO1 131037Z 03004KT 01/M07 A3029 RMK A01 T00101066  RH  057%=      5-min Rain = 0
KDO1 131038Z 02004KT 01/M07 A3029 RMK A01 T00111066  RH  056%=      5-min Rain = 0
KDO1 131039Z 02005KT 01/M07 A3029 RMK A01 T00121066  RH  056%=      5-min Rain = 0
KDO1 131040Z 02005KT 01/M07 A3029 RMK A01 T00121067  RH  056%=      5-min Rain = 0
KDO1 131041Z 02004KT 01/M07 A3029 RMK A01 T00121067  RH  056%=      5-min Rain = 0
KDO1 131042Z 02005KT 01/M07 A3029 RMK A01 T00131067  RH  056%=      5-min Rain = 0
KDO1 131043Z 01004KT 01/M07 A3029 RMK A01 T00121067  RH  055%=      5-min Rain = 0
KDO1 131044Z 01005KT 01/M07 A3029 RMK A01 T00121067  RH  055%=      5-min Rain = 0
KDO1 131045Z 01004KT 01/M07 A3029 RMK A01 T00121067  RH  055%=      5-min Rain = 0
KDO1 131046Z 02004KT 01/M07 A3029 RMK A01 T00121068  RH  055%=      5-min Rain = 0
KDO1 131047Z 02003KT 01/M07 A3029 RMK A01 T00121067  RH  055%=      5-min Rain = 0
KDO1 131048Z 03003KT 01/M07 A3029 RMK A01 T00121067  RH  056%=      5-min Rain = 0
KDO1 131049Z 04002KT 01/M07 A3029 RMK A01 T00131067  RH  055%=      5-min Rain = 0
KDO1 131050Z 03001KT 01/M07 A303 RMK A01 T00141067  RH  055%=      5-min Rain = 0
KDO1 131051Z 03002KT 02/M07 A303 RMK A01 T00151067  RH  055%=      5-min Rain = 0
KDO1 131052Z 03001KT 01/M07 A303 RMK A01 T00141067  RH  055%=      5-min Rain = 0
KDO1 131053Z 02001KT 01/M07 A303 RMK A01 T00131068  RH  055%=      5-min Rain = 0
KDO1 131054Z 00000KT 01/M07 A303 RMK A01 T00111069  RH  055%=      5-min Rain = 0
KDO1 131055Z 34001KT 01/M07 A303 RMK A01 T00091070  RH  056%=      5-min Rain = 0
KDO1 131056Z 35001KT 01/M07 A303 RMK A01 T00071070  RH  056%=      5-min Rain = 0
KDO1 131057Z 34001KT 01/M07 A303 RMK A01 T00061070  RH  057%=      5-min Rain = 0
KDO1 131058Z 34001KT 01/M07 A303 RMK A01 T00061070  RH  057%=      5-min Rain = 0
KDO1 131059Z 35001KT 01/M07 A303 RMK A01 T00071070  RH  057%=      5-min Rain = 0
KDO1 131100Z 36001KT 01/M07 A303 RMK A01 T00071070  RH  056%=      5-min Rain = 0
KDO1 131101Z 36001KT 01/M07 A303 RMK A01 T00081069  RH  056%=      5-min Rain = 0
KDO1 131102Z 35001KT 01/M07 A303 RMK A01 T00081070  RH  056%=      5-min Rain = 0
KDO1 131103Z 35002KT 01/M07 A303 RMK A01 T00081070  RH  056%=      5-min Rain = 0
KDO1 131104Z 35002KT 01/M07 A303 RMK A01 T00061072  RH  056%=      5-min Rain = 0
KDO1 131105Z 35002KT 01/M07 A303 RMK A01 T00051073  RH  056%=      5-min Rain = 0
KDO1 131106Z 35002KT 00/M07 A303 RMK A01 T00041074  RH  056%=      5-min Rain = 0
KDO1 131107Z 34002KT 00/M08 A303 RMK A01 T00031075  RH  056%=      5-min Rain = 0
KDO1 131108Z 33002KT 00/M07 A303 RMK A01 T00021074  RH  057%=      5-min Rain = 0
KDO1 131109Z 32002KT 00/M07 A303 RMK A01 T00011074  RH  057%=      5-min Rain = 0
KDO1 131110Z 32001KT 00/08 A303 RMK A01 T00-00-75  RH  057%=      5-min Rain = 0
KDO1 131111Z 31001KT M00/M08 A303 RMK A01 T10021075  RH  058%=      5-min Rain = 0
KDO1 131112Z 31001KT M00/M08 A303 RMK A01 T10031076  RH  058%=      5-min Rain = 0
KDO1 131113Z 31001KT M00/M08 A303 RMK A01 T10041076  RH  058%=      5-min Rain = 0
KDO1 131114Z 30001KT M01/M08 A303 RMK A01 T10051076  RH  059%=      5-min Rain = 0
KDO1 131115Z 30001KT M01/M08 A303 RMK A01 T10051076  RH  059%=      5-min Rain = 0
KDO1 131116Z 30002KT M01/M08 A303 RMK A01 T10051075  RH  059%=      5-min Rain = 0
KDO1 131117Z 29002KT M01/M08 A303 RMK A01 T10061075  RH  060%=      5-min Rain = 0
KDO1 131118Z 30002KT M01/M07 A3031 RMK A01 T10051073  RH  060%=      5-min Rain = 0
KDO1 131119Z 30002KT M01/M07 A3031 RMK A01 T10051074  RH  060%=      5-min Rain = 0
KDO1 131120Z 30003KT M01/M07 A3031 RMK A01 T10051074  RH  059%=      5-min Rain = 0
KDO1 131121Z 30003KT M01/M07 A3031 RMK A01 T10051074  RH  060%=      5-min Rain = 0
KDO1 131122Z 31003KT M01/M07 A3031 RMK A01 T10051074  RH  060%=      5-min Rain = 0
KDO1 131123Z 31003KT M01/M07 A3031 RMK A01 T10051074  RH  060%=      5-min Rain = 0
KDO1 131124Z 32003KT M01/M07 A3031 RMK A01 T10061073  RH  060%=      5-min Rain = 0
KDO1 131125Z 32003KT M01/M07 A3031 RMK A01 T10061073  RH  060%=      5-min Rain = 0
KDO1 131126Z 32003KT M01/M07 A3031 RMK A01 T10061074  RH  060%=      5-min Rain = 0
KDO1 131127Z 33003KT M01/M08 A3031 RMK A01 T10061075  RH  059%=      5-min Rain = 0
KDO1 131128Z 34003KT M01/M07 A3031 RMK A01 T10051074  RH  059%=      5-min Rain = 0
KDO1 131129Z 35003KT M01/M07 A3032 RMK A01 T10051074  RH  060%=      5-min Rain = 0
KDO1 131130Z 36003KT M00/M07 A3032 RMK A01 T10041074  RH  059%=      5-min Rain = 0
KDO1 131131Z 35003KT M00/M08 A3032 RMK A01 T10041075  RH  059%=      5-min Rain = 0
KDO1 131132Z 35003KT M00/M08 A3032 RMK A01 T10041076  RH  059%=      5-min Rain = 0
KDO1 131133Z 35003KT M00/M08 A3032 RMK A01 T10031075  RH  058%=      5-min Rain = 0
KDO1 131134Z 34003KT M00/M08 A3032 RMK A01 T10031076  RH  058%=      5-min Rain = 0
KDO1 131135Z 35003KT M00/M08 A3032 RMK A01 T10031076  RH  058%=      5-min Rain = 0
KDO1 131136Z 35003KT M00/M08 A3032 RMK A01 T10031077  RH  057%=      5-min Rain = 0
KDO1 131137Z 36004KT M00/M08 A3032 RMK A01 T10021078  RH  057%=      5-min Rain = 0
KDO1 131138Z 00004KT M00/M08 A3032 RMK A01 T10021078  RH  056%=      5-min Rain = 0
KDO1 131139Z 35004KT M00/M08 A3032 RMK A01 T10011079  RH  056%=      5-min Rain = 0
KDO1 131140Z 35004KT M00/M08 A3032 RMK A01 T10021079  RH  056%=      5-min Rain = 0
KDO1 131141Z 00004KT M00/M08 A3032 RMK A01 T10021079  RH  056%=      5-min Rain = 0
KDO1 131142Z 00004KT M00/M08 A3032 RMK A01 T10021078  RH  057%=      5-min Rain = 0
KDO1 131143Z 00004KT M00/M08 A3032 RMK A01 T10021077  RH  057%=      5-min Rain = 0
KDO1 131144Z 00004KT M00/M08 A3032 RMK A01 T10011076  RH  057%=      5-min Rain = 0
KDO1 131145Z 00004KT M00/M08 A3032 RMK A01 T10011077  RH  057%=      5-min Rain = 0
KDO1 131146Z 35004KT 00/08 A3032 RMK A01 T00000-76  RH  057%=      5-min Rain = 0
KDO1 131147Z 35004KT 00/08 A3032 RMK A01 T00000-75  RH  057%=      5-min Rain = 0
KDO1 131148Z 34004KT 00/08 A3032 RMK A01 T00-00-75  RH  057%=      5-min Rain = 0
KDO1 131149Z 34004KT M00/M07 A3032 RMK A01 T10011074  RH  058%=      5-min Rain = 0
KDO1 131150Z 34004KT M00/M07 A3032 RMK A01 T10011073  RH  058%=      5-min Rain = 0
KDO1 131151Z 34004KT M00/M07 A3032 RMK A01 T10011073  RH  059%=      5-min Rain = 0
KDO1 131152Z 35004KT 00/07 A3032 RMK A01 T00-00-72  RH  058%=      5-min Rain = 0
KDO1 131153Z 35004KT 00/07 A3032 RMK A01 T00000-71  RH  058%=      5-min Rain = 0
KDO1 131154Z 35004KT 00/M07 A3032 RMK A01 T00021070  RH  058%=      5-min Rain = 0
KDO1 131155Z 35004KT 00/M07 A3032 RMK A01 T00041069  RH  058%=      5-min Rain = 0
KDO1 131156Z 36004KT 01/M07 A3032 RMK A01 T00071069  RH  057%=      5-min Rain = 0
KDO1 131157Z 35004KT 01/M07 A3032 RMK A01 T00091069  RH  056%=      5-min Rain = 0
KDO1 131158Z 36005KT 01/M07 A3032 RMK A01 T00101070  RH  055%=      5-min Rain = 0
KDO1 131159Z 36005KT 01/M07 A3032 RMK A01 T00101070  RH  055%=      5-min Rain = 0
KDO1 131200Z 36005KT 01/M07 A3032 RMK A01 T00111070  RH  055%=      5-min Rain = 0
KDO1 131201Z 00005KT 01/M07 A3032 RMK A01 T00111071  RH  054%=      5-min Rain = 0
KDO1 131202Z 00005KT 01/M07 A3032 RMK A01 T00111071  RH  054%=      5-min Rain = 0
KDO1 131203Z 00005KT 01/M07 A3032 RMK A01 T00111070  RH  054%=      5-min Rain = 0
KDO1 131204Z 36005KT 01/M07 A3032 RMK A01 T00111070  RH  054%=      5-min Rain = 0
KDO1 131205Z 36005KT 01/M07 A3032 RMK A01 T00101071  RH  055%=      5-min Rain = 0
KDO1 131206Z 36005KT 01/M07 A3032 RMK A01 T00091071  RH  055%=      5-min Rain = 0
KDO1 131207Z 36005KT 01/M07 A3033 RMK A01 T00081071  RH  056%=      5-min Rain = 0
KDO1 131208Z 36005KT 01/M07 A3033 RMK A01 T00071071  RH  056%=      5-min Rain = 0
KDO1 131209Z 00005KT 01/M07 A3033 RMK A01 T00071070  RH  056%=      5-min Rain = 0
KDO1 131210Z 00005KT 01/M07 A3033 RMK A01 T00061070  RH  057%=      5-min Rain = 0
KDO1 131211Z 00005KT 01/M07 A3033 RMK A01 T00061070  RH  057%=      5-min Rain = 0
KDO1 131212Z 36004KT 01/M07 A3033 RMK A01 T00061069  RH  057%=      5-min Rain = 0
KDO1 131213Z 36004KT 01/M07 A3033 RMK A01 T00061070  RH  057%=      5-min Rain = 0
KDO1 131214Z 00005KT 01/M07 A3033 RMK A01 T00061071  RH  057%=      5-min Rain = 0
KDO1 131215Z 00005KT 01/M07 A3033 RMK A01 T00051071  RH  057%=      5-min Rain = 0
KDO1 131216Z 00005KT 01/M07 A3033 RMK A01 T00051070  RH  057%=      5-min Rain = 0
KDO1 131217Z 01005KT 01/M07 A3033 RMK A01 T00051069  RH  057%=      5-min Rain = 0
KDO1 131218Z 01005KT 01/M07 A3033 RMK A01 T00071068  RH  057%=      5-min Rain = 0
KDO1 131219Z 01005KT 01/M07 A3033 RMK A01 T00081068  RH  057%=      5-min Rain = 0
KDO1 131220Z 01005KT 01/M07 A3033 RMK A01 T00091068  RH  056%=      5-min Rain = 0
KDO1 131221Z 01005KT 01/M07 A3033 RMK A01 T00101068  RH  056%=      5-min Rain = 0
KDO1 131222Z 01006KT 01/M07 A3033 RMK A01 T00111068  RH  056%=      5-min Rain = 0
KDO1 131223Z 01006KT 01/M07 A3033 RMK A01 T00121068  RH  055%=      5-min Rain = 0
KDO1 131224Z 01006KT 01/M07 A3033 RMK A01 T00121068  RH  055%=      5-min Rain = 0
KDO1 131225Z 01006KT 01/M07 A3033 RMK A01 T00121068  RH  055%=      5-min Rain = 0
KDO1 131226Z 01006KT 01/M07 A3033 RMK A01 T00121068  RH  055%=      5-min Rain = 0
KDO1 131227Z 01006KT 01/M07 A3033 RMK A01 T00121069  RH  055%=      5-min Rain = 0
KDO1 131228Z 00006KT 01/M07 A3033 RMK A01 T00121068  RH  055%=      5-min Rain = 0
KDO1 131229Z 01006KT 01/M07 A3033 RMK A01 T00111069  RH  055%=      5-min Rain = 0
KDO1 131230Z 00006KT 01/M07 A3033 RMK A01 T00111069  RH  056%=      5-min Rain = 0
KDO1 131231Z 00006KT 01/M07 A3033 RMK A01 T00101069  RH  056%=      5-min Rain = 0
KDO1 131232Z 00006KT 01/M07 A3033 RMK A01 T00101069  RH  056%=      5-min Rain = 0
KDO1 131233Z 01006KT 01/M07 A3033 RMK A01 T00101069  RH  056%=      5-min Rain = 0
KDO1 131234Z 01006KT 01/M07 A3033 RMK A01 T00101069  RH  056%=      5-min Rain = 0
KDO1 131235Z 01006KT 01/M07 A3033 RMK A01 T00091069  RH  056%=      5-min Rain = 0
KDO1 131236Z 00006KT 01/M07 A3033 RMK A01 T00091069  RH  056%=      5-min Rain = 0
KDO1 131237Z 00006KT 01/M07 A3033 RMK A01 T00091069  RH  056%=      5-min Rain = 0
KDO1 131238Z 00007KT 01/M07 A3033 RMK A01 T00081070  RH  056%=      5-min Rain = 0
KDO1 131239Z 00007KT 01/M07 A3033 RMK A01 T00071070  RH  056%=      5-min Rain = 0
KDO1 131240Z 00006KT 01/M07 A3033 RMK A01 T00061070  RH  057%=      5-min Rain = 0
KDO1 131241Z 00007KT 01/M07 A3033 RMK A01 T00051070  RH  057%=      5-min Rain = 0
KDO1 131242Z 00007KT 00/M07 A3033 RMK A01 T00041070  RH  057%=      5-min Rain = 0
KDO1 131243Z 00006KT 00/M07 A3033 RMK A01 T00041070  RH  058%=      5-min Rain = 0
KDO1 131244Z 00006KT 00/M07 A3033 RMK A01 T00031070  RH  058%=      5-min Rain = 0
KDO1 131245Z 36006KT 00/M07 A3033 RMK A01 T00031070  RH  058%=      5-min Rain = 0
KDO1 131246Z 36006KT 00/M07 A3033 RMK A01 T00031070  RH  058%=      5-min Rain = 0
KDO1 131247Z 36006KT 00/M07 A3033 RMK A01 T00031069  RH  058%=      5-min Rain = 0
KDO1 131248Z 36006KT 00/M07 A3033 RMK A01 T00041069  RH  058%=      5-min Rain = 0
KDO1 131249Z 36006KT 01/M07 A3033 RMK A01 T00051069  RH  058%=      5-min Rain = 0
KDO1 131250Z 36006KT 00/M07 A3034 RMK A01 T00041070  RH  058%=      5-min Rain = 0
KDO1 131251Z 36006KT 00/M07 A3034 RMK A01 T00031070  RH  058%=      5-min Rain = 0
KDO1 131252Z 36006KT 00/M07 A3034 RMK A01 T00021070  RH  058%=      5-min Rain = 0
KDO1 131253Z 36006KT 00/M07 A3034 RMK A01 T00021070  RH  058%=      5-min Rain = 0
KDO1 131254Z 36006KT 00/M07 A3034 RMK A01 T00021070  RH  058%=      5-min Rain = 0
KDO1 131255Z 36006KT 00/M07 A3034 RMK A01 T00021070  RH  059%=      5-min Rain = 0
KDO1 131256Z 36006KT 00/M07 A3034 RMK A01 T00021069  RH  059%=      5-min Rain = 0
KDO1 131257Z 35006KT 00/M07 A3034 RMK A01 T00031069  RH  059%=      5-min Rain = 0
KDO1 131258Z 36006KT 00/M07 A3034 RMK A01 T00041068  RH  058%=      5-min Rain = 0
KDO1 131259Z 35006KT 01/M07 A3034 RMK A01 T00051068  RH  058%=      5-min Rain = 0
KDO1 131300Z 35006KT 01/M07 A3034 RMK A01 T00051069  RH  058%=      5-min Rain = 0
KDO1 131301Z 35006KT 01/M07 A3034 RMK A01 T00051069  RH  058%=      5-min Rain = 0
KDO1 131302Z 36006KT 01/M07 A3034 RMK A01 T00051069  RH  058%=      5-min Rain = 0
KDO1 131303Z 36006KT 01/M07 A3034 RMK A01 T00051069  RH  058%=      5-min Rain = 0
KDO1 131304Z 35006KT 01/M07 A3034 RMK A01 T00051068  RH  058%=      5-min Rain = 0
KDO1 131305Z 36007KT 01/M07 A3034 RMK A01 T00061068  RH  058%=      5-min Rain = 0
KDO1 131306Z 36006KT 01/M07 A3034 RMK A01 T00061068  RH  058%=      5-min Rain = 0
KDO1 131307Z 00006KT 01/M07 A3034 RMK A01 T00051068  RH  058%=      5-min Rain = 0
KDO1 131308Z 36007KT 01/M07 A3035 RMK A01 T00051068  RH  058%=      5-min Rain = 0
KDO1 131309Z 36007KT 01/M07 A3035 RMK A01 T00051068  RH  058%=      5-min Rain = 0
KDO1 131310Z 00007KT 01/M07 A3035 RMK A01 T00061068  RH  058%=      5-min Rain = 0
KDO1 131311Z 00006KT 01/M07 A3035 RMK A01 T00051068  RH  058%=      5-min Rain = 0
KDO1 131312Z 36006KT 01/M07 A3035 RMK A01 T00051068  RH  058%=      5-min Rain = 0
KDO1 131313Z 36006KT 00/M07 A3035 RMK A01 T00041068  RH  058%=      5-min Rain = 0
KDO1 131314Z 36006KT 01/M07 A3035 RMK A01 T00051068  RH  058%=      5-min Rain = 0
KDO1 131315Z 00006KT 00/M07 A3035 RMK A01 T00041068  RH  058%=      5-min Rain = 0
KDO1 131316Z 00006KT 00/M07 A3035 RMK A01 T00041068  RH  058%=      5-min Rain = 0
KDO1 131317Z 00006KT 01/M07 A3035 RMK A01 T00051068  RH  058%=      5-min Rain = 0
KDO1 131318Z 00007KT 01/M07 A3035 RMK A01 T00061067  RH  058%=      5-min Rain = 0
KDO1 131319Z 00007KT 01/M07 A3035 RMK A01 T00061067  RH  058%=      5-min Rain = 0
KDO1 131320Z 00007KT 01/M07 A3036 RMK A01 T00071066  RH  058%=      5-min Rain = 0
KDO1 131321Z 00007KT 01/M07 A3036 RMK A01 T00081066  RH  058%=      5-min Rain = 0
KDO1 131322Z 00007KT 01/M07 A3036 RMK A01 T00091066  RH  057%=      5-min Rain = 0
KDO1 131323Z 00007KT 01/M07 A3036 RMK A01 T00101065  RH  057%=      5-min Rain = 0
KDO1 131324Z 00007KT 01/M07 A3036 RMK A01 T00121065  RH  057%=      5-min Rain = 0
KDO1 131325Z 00007KT 01/M06 A3036 RMK A01 T00121064  RH  057%=      5-min Rain = 0
KDO1 131326Z 00007KT 01/M06 A3036 RMK A01 T00131064  RH  056%=      5-min Rain = 0
KDO1 131327Z 00007KT 01/M06 A3036 RMK A01 T00141064  RH  056%=      5-min Rain = 0
KDO1 131328Z 00007KT 02/M06 A3036 RMK A01 T00161063  RH  056%=      5-min Rain = 0
KDO1 131329Z 36007KT 02/M06 A3036 RMK A01 T00161063  RH  056%=      5-min Rain = 0
KDO1 131330Z 00007KT 02/M06 A3036 RMK A01 T00171063  RH  055%=      5-min Rain = 0
KDO1 131331Z 00007KT 02/M06 A3036 RMK A01 T00181063  RH  055%=      5-min Rain = 0
KDO1 131332Z 00006KT 02/M06 A3036 RMK A01 T00191063  RH  055%=      5-min Rain = 0
KDO1 131333Z 00006KT 02/M06 A3036 RMK A01 T00191063  RH  055%=      5-min Rain = 0
KDO1 131334Z 01006KT 02/M06 A3036 RMK A01 T00201062  RH  054%=      5-min Rain = 0
KDO1 131335Z 01006KT 02/M06 A3036 RMK A01 T00211062  RH  054%=      5-min Rain = 0
KDO1 131336Z 01006KT 02/M06 A3036 RMK A01 T00221062  RH  054%=      5-min Rain = 0
KDO1 131337Z 01007KT 02/M06 A3036 RMK A01 T00231062  RH  054%=      5-min Rain = 0
KDO1 131338Z 00007KT 02/M06 A3036 RMK A01 T00241062  RH  053%=      5-min Rain = 0
KDO1 131339Z 01007KT 02/M06 A3036 RMK A01 T00241062  RH  053%=      5-min Rain = 0
KDO1 131340Z 00006KT 03/M06 A3036 RMK A01 T00251062  RH  053%=      5-min Rain = 0
KDO1 131341Z 00006KT 03/M06 A3036 RMK A01 T00261062  RH  052%=      5-min Rain = 0
KDO1 131342Z 00006KT 03/M06 A3036 RMK A01 T00261062  RH  052%=      5-min Rain = 0
KDO1 131343Z 00006KT 03/M06 A3036 RMK A01 T00271062  RH  052%=      5-min Rain = 0
KDO1 131344Z 00006KT 03/M06 A3036 RMK A01 T00271061  RH  052%=      5-min Rain = 0
KDO1 131345Z 00006KT 03/M06 A3036 RMK A01 T00271061  RH  052%=      5-min Rain = 0
KDO1 131346Z 00006KT 03/M06 A3036 RMK A01 T00281061  RH  052%=      5-min Rain = 0
KDO1 131347Z 00006KT 03/M06 A3036 RMK A01 T00281060  RH  052%=      5-min Rain = 0
KDO1 131348Z 36006KT 03/M06 A3036 RMK A01 T00291061  RH  052%=      5-min Rain = 0
KDO1 131349Z 36006KT 03/M06 A3036 RMK A01 T00291061  RH  052%=      5-min Rain = 0
KDO1 131350Z 36006KT 03/M06 A3036 RMK A01 T00301061  RH  051%=      5-min Rain = 0
KDO1 131351Z 36006KT 03/M06 A3037 RMK A01 T00311061  RH  051%=      5-min Rain = 0
KDO1 131352Z 36005KT 03/M06 A3037 RMK A01 T00311060  RH  051%=      5-min Rain = 0
KDO1 131353Z 36005KT 03/M06 A3037 RMK A01 T00321060  RH  051%=      5-min Rain = 0
KDO1 131354Z 36005KT 03/M06 A3037 RMK A01 T00331060  RH  051%=      5-min Rain = 0
KDO1 131355Z 35005KT 03/M06 A3037 RMK A01 T00341059  RH  051%=      5-min Rain = 0
KDO1 131356Z 36004KT 03/M06 A3037 RMK A01 T00341059  RH  050%=      5-min Rain = 0
KDO1 131357Z 36005KT 04/M06 A3037 RMK A01 T00351058  RH  050%=      5-min Rain = 0
KDO1 131358Z 00004KT 04/M06 A3037 RMK A01 T00361059  RH  050%=      5-min Rain = 0
KDO1 131359Z 36004KT 04/M06 A3037 RMK A01 T00371058  RH  050%=      5-min Rain = 0
KDO1 131400Z 00004KT 04/M06 A3037 RMK A01 T00371059  RH  049%=      5-min Rain = 0
KDO1 131401Z 00004KT 04/M06 A3037 RMK A01 T00381059  RH  049%=      5-min Rain = 0
KDO1 131402Z 35003KT 04/M06 A3037 RMK A01 T00391058  RH  049%=      5-min Rain = 0
KDO1 131403Z 01003KT 04/M06 A3037 RMK A01 T00401057  RH  049%=      5-min Rain = 0
KDO1 131404Z 00003KT 04/M06 A3037 RMK A01 T00401057  RH  049%=      5-min Rain = 0
KDO1 131405Z 00004KT 04/M06 A3037 RMK A01 T00411057  RH  049%=      5-min Rain = 0
KDO1 131406Z 01003KT 04/M06 A3037 RMK A01 T00421057  RH  049%=      5-min Rain = 0
KDO1 131407Z 00004KT 04/M06 A3037 RMK A01 T00431057  RH  048%=      5-min Rain = 0
KDO1 131408Z 00002KT 04/M06 A3037 RMK A01 T00441057  RH  048%=      5-min Rain = 0
KDO1 131409Z 02002KT 05/M06 A3037 RMK A01 T00451058  RH  047%=      5-min Rain = 0
KDO1 131410Z 01002KT 05/M06 A3037 RMK A01 T00451059  RH  047%=      5-min Rain = 0
KDO1 131411Z 01002KT 05/M06 A3037 RMK A01 T00461058  RH  047%=      5-min Rain = 0
KDO1 131412Z 02002KT 05/M06 A3037 RMK A01 T00461059  RH  046%=      5-min Rain = 0
KDO1 131413Z 00002KT 05/M06 A3037 RMK A01 T00471059  RH  046%=      5-min Rain = 0
KDO1 131414Z 01001KT 05/M06 A3038 RMK A01 T00471058  RH  047%=      5-min Rain = 0
KDO1 131415Z 35002KT 05/M06 A3038 RMK A01 T00481057  RH  047%=      5-min Rain = 0
KDO1 131416Z 01003KT 05/M06 A3038 RMK A01 T00481058  RH  046%=      5-min Rain = 0
KDO1 131417Z 01003KT 05/M06 A3038 RMK A01 T00481058  RH  046%=      5-min Rain = 0
KDO1 131418Z 36002KT 05/M06 A3038 RMK A01 T00481058  RH  046%=      5-min Rain = 0
KDO1 131419Z 35002KT 05/M06 A3038 RMK A01 T00481057  RH  046%=      5-min Rain = 0
KDO1 131420Z 34002KT 05/M06 A3038 RMK A01 T00491056  RH  047%=      5-min Rain = 0
KDO1 131421Z 35002KT 05/M06 A3038 RMK A01 T00491056  RH  046%=      5-min Rain = 0
KDO1 131422Z 34001KT 05/M06 A3038 RMK A01 T00501055  RH  046%=      5-min Rain = 0
KDO1 131423Z 36002KT 05/M06 A3038 RMK A01 T00511055  RH  046%=      5-min Rain = 0
KDO1 131424Z 35003KT 05/M06 A3038 RMK A01 T00511056  RH  046%=      5-min Rain = 0
KDO1 131425Z 36002KT 05/M06 A3038 RMK A01 T00521058  RH  045%=      5-min Rain = 0
KDO1 131426Z 01002KT 05/M06 A3038 RMK A01 T00521059  RH  045%=      5-min Rain = 0
KDO1 131427Z 00002KT 05/M06 A3038 RMK A01 T00521058  RH  045%=      5-min Rain = 0
KDO1 131428Z 35002KT 05/M06 A3038 RMK A01 T00521058  RH  045%=      5-min Rain = 0
KDO1 131429Z 00003KT 05/M06 A3038 RMK A01 T00531058  RH  045%=      5-min Rain = 0
KDO1 131430Z 02002KT 05/M06 A3038 RMK A01 T00541058  RH  044%=      5-min Rain = 0
KDO1 131431Z 36002KT 05/M06 A3038 RMK A01 T00541059  RH  044%=      5-min Rain = 0
KDO1 131432Z 02001KT 06/M06 A3038 RMK A01 T00551059  RH  044%=      5-min Rain = 0
KDO1 131433Z 02002KT 06/M06 A3038 RMK A01 T00551058  RH  044%=      5-min Rain = 0
KDO1 131434Z 03002KT 06/M06 A3038 RMK A01 T00561059  RH  043%=      5-min Rain = 0
KDO1 131435Z 01002KT 06/M06 A3038 RMK A01 T00561059  RH  043%=      5-min Rain = 0
KDO1 131436Z 02002KT 06/M06 A3038 RMK A01 T00581059  RH  043%=      5-min Rain = 0
KDO1 131437Z 02002KT 06/M06 A3038 RMK A01 T00591058  RH  043%=      5-min Rain = 0
KDO1 131438Z 03003KT 06/M06 A3038 RMK A01 T00601059  RH  042%=      5-min Rain = 0
KDO1 131439Z 05002KT 06/M06 A3038 RMK A01 T00611060  RH  042%=      5-min Rain = 0
KDO1 131440Z 06001KT 06/M06 A3038 RMK A01 T00611060  RH  042%=      5-min Rain = 0
KDO1 131441Z 03001KT 06/M06 A3038 RMK A01 T00621058  RH  042%=      5-min Rain = 0
KDO1 131442Z 04002KT 06/M06 A3038 RMK A01 T00621059  RH  042%=      5-min Rain = 0
KDO1 131443Z 06001KT 06/M06 A3038 RMK A01 T00621059  RH  042%=      5-min Rain = 0
KDO1 131444Z 06003KT 06/M06 A3038 RMK A01 T00631057  RH  042%=      5-min Rain = 0
KDO1 131445Z 05002KT 07/M06 A3038 RMK A01 T00651055  RH  042%=      5-min Rain = 0
KDO1 131446Z 07002KT 07/M05 A3038 RMK A01 T00661053  RH  042%=      5-min Rain = 0
KDO1 131447Z 07003KT 07/M05 A3038 RMK A01 T00681051  RH  042%=      5-min Rain = 0
KDO1 131448Z 07003KT 07/M05 A3038 RMK A01 T00701053  RH  041%=      5-min Rain = 0
KDO1 131449Z 07003KT 07/M05 A3038 RMK A01 T00701054  RH  041%=      5-min Rain = 0
KDO1 131450Z 08004KT 07/M05 A3038 RMK A01 T00711053  RH  041%=      5-min Rain = 0
KDO1 131451Z 07004KT 07/M06 A3038 RMK A01 T00721057  RH  039%=      5-min Rain = 0
KDO1 131452Z 07006KT 07/M06 A3038 RMK A01 T00721059  RH  039%=      5-min Rain = 0
KDO1 131453Z 07007KT 07/M06 A3038 RMK A01 T00741063  RH  037%=      5-min Rain = 0
KDO1 131454Z 06007KT 08/M07 A3038 RMK A01 T00751066  RH  036%=      5-min Rain = 0
KDO1 131455Z 08006KT 08/M07 A3038 RMK A01 T00751066  RH  036%=      5-min Rain = 0
KDO1 131456Z 08006KT 08/M07 A3038 RMK A01 T00761066  RH  036%=      5-min Rain = 0
KDO1 131457Z 08005KT 08/M07 A3038 RMK A01 T00761067  RH  036%=      5-min Rain = 0
KDO1 131458Z 09006KT 08/M07 A3038 RMK A01 T00751068  RH  036%=      5-min Rain = 0
KDO1 131459Z 08006KT 08/M07 A3038 RMK A01 T00771067  RH  035%=      5-min Rain = 0
KDO1 131500Z 09007KT 08/M07 A3038 RMK A01 T00791065  RH  035%=      5-min Rain = 0
KDO1 131501Z 09006KT 08/M06 A3038 RMK A01 T00811064  RH  035%=      5-min Rain = 0
KDO1 131502Z 08008KT 08/M07 A3038 RMK A01 T00831065  RH  035%=      5-min Rain = 0
KDO1 131503Z 08008KT 08/M07 A3038 RMK A01 T00831067  RH  034%=      5-min Rain = 0
KDO1 131504Z 09007KT 08/M07 A3038 RMK A01 T00821067  RH  034%=      5-min Rain = 0
KDO1 131505Z 10006KT 08/M07 A3038 RMK A01 T00811068  RH  034%=      5-min Rain = 0
KDO1 131506Z 09006KT 08/M07 A3038 RMK A01 T00801068  RH  034%=      5-min Rain = 0
KDO1 131507Z 08007KT 08/M07 A3038 RMK A01 T00821066  RH  034%=      5-min Rain = 0
KDO1 131508Z 08008KT 09/M07 A3038 RMK A01 T00851067  RH  033%=      5-min Rain = 0
KDO1 131509Z 09008KT 09/M07 A3038 RMK A01 T00861070  RH  032%=      5-min Rain = 0
KDO1 131510Z 08007KT 09/M07 A3038 RMK A01 T00851071  RH  032%=      5-min Rain = 0
KDO1 131511Z 08008KT 09/M07 A3038 RMK A01 T00871071  RH  032%=      5-min Rain = 0
KDO1 131512Z 09007KT 09/M07 A3038 RMK A01 T00871072  RH  032%=      5-min Rain = 0
KDO1 131513Z 08008KT 09/M07 A3038 RMK A01 T00881071  RH  032%=      5-min Rain = 0
KDO1 131514Z 09009KT 09/M07 A3038 RMK A01 T00891072  RH  031%=      5-min Rain = 0
KDO1 131515Z 08007KT 09/M07 A3038 RMK A01 T00891070  RH  032%=      5-min Rain = 0
KDO1 131516Z 09007KT 09/M07 A3038 RMK A01 T00901070  RH  032%=      5-min Rain = 0
KDO1 131517Z 09009KT 09/M07 A3038 RMK A01 T00911071  RH  031%=      5-min Rain = 0
KDO1 131518Z 10008KT 09/M07 A3038 RMK A01 T00901073  RH  031%=      5-min Rain = 0
KDO1 131519Z 10007KT 09/M07 A3038 RMK A01 T00891072  RH  031%=      5-min Rain = 0
KDO1 131520Z 10007KT 09/M07 A3038 RMK A01 T00881071  RH  032%=      5-min Rain = 0
KDO1 131521Z 09008KT 09/M07 A3038 RMK A01 T00891070  RH  032%=      5-min Rain = 0
KDO1 131522Z 09008KT 09/M07 A3038 RMK A01 T00891071  RH  032%=      5-min Rain = 0
KDO1 131523Z 09007KT 09/M07 A3038 RMK A01 T00881070  RH  032%=      5-min Rain = 0
KDO1 131524Z 07007KT 09/M07 A3038 RMK A01 T00901067  RH  032%=      5-min Rain = 0
KDO1 131525Z 09007KT 09/M07 A3038 RMK A01 T00931067  RH  032%=      5-min Rain = 0
KDO1 131526Z 09009KT 09/M07 A3038 RMK A01 T00931068  RH  031%=      5-min Rain = 0
KDO1 131527Z 08008KT 09/M07 A3038 RMK A01 T00931068  RH  031%=      5-min Rain = 0
KDO1 131528Z 10007KT 09/M07 A3038 RMK A01 T00931068  RH  031%=      5-min Rain = 0
KDO1 131529Z 09008KT 10/M07 A3038 RMK A01 T00961066  RH  031%=      5-min Rain = 0
KDO1 131530Z 08010KT 10/M07 A3038 RMK A01 T00971070  RH  030%=      5-min Rain = 0
KDO1 131531Z 07008KT 10/M07 A3038 RMK A01 T00951072  RH  030%=      5-min Rain = 0
KDO1 131532Z 09008KT 10/M07 A3038 RMK A01 T00951071  RH  030%=      5-min Rain = 0
KDO1 131533Z 11009KT 10/M07 A3038 RMK A01 T00961070  RH  030%=      5-min Rain = 0
KDO1 131534Z 10009KT 10/M07 A3038 RMK A01 T00971072  RH  030%=      5-min Rain = 0
KDO1 131535Z 10007KT 10/M07 A3038 RMK A01 T00981071  RH  030%=      5-min Rain = 0
KDO1 131536Z 09007KT 10/M07 A3038 RMK A01 T01001070  RH  030%=      5-min Rain = 0
KDO1 131537Z 09008KT 10/M07 A3038 RMK A01 T01021069  RH  029%=      5-min Rain = 0
KDO1 131538Z 10011KT 10/M07 A3038 RMK A01 T01041071  RH  029%=      5-min Rain = 0
KDO1 131539Z 09009KT 10/M07 A3038 RMK A01 T01031073  RH  028%=      5-min Rain = 0
KDO1 131540Z 09007KT 10/M07 A3038 RMK A01 T01031071  RH  029%=      5-min Rain = 0
KDO1 131541Z 07009KT 11/M07 A3038 RMK A01 T01061069  RH  029%=      5-min Rain = 0
KDO1 131542Z 08008KT 11/M07 A3038 RMK A01 T01071071  RH  028%=      5-min Rain = 0
KDO1 131543Z 07009KT 11/M07 A3038 RMK A01 T01061074  RH  028%=      5-min Rain = 0
KDO1 131544Z 08008KT 10/M07 A3038 RMK A01 T01031074  RH  028%=      5-min Rain = 0
KDO1 131545Z 09012KT 10/M07 A3038 RMK A01 T01031073  RH  028%=      5-min Rain = 0
KDO1 131546Z 09010KT 10/M08 A3038 RMK A01 T01031075  RH  028%=      5-min Rain = 0
KDO1 131547Z 08009KT 10/M08 A3038 RMK A01 T01021079  RH  027%=      5-min Rain = 0
KDO1 131548Z 09008KT 10/M08 A3038 RMK A01 T01011076  RH  028%=      5-min Rain = 0
KDO1 131549Z 09008KT 10/M07 A3038 RMK A01 T01031074  RH  028%=      5-min Rain = 0
KDO1 131550Z 10011KT 10/M08 A3038 RMK A01 T01041075  RH  028%=      5-min Rain = 0
KDO1 131551Z 06010KT 11/M08 A3038 RMK A01 T01051075  RH  028%=      5-min Rain = 0
KDO1 131552Z 08009KT 11/M08 A3038 RMK A01 T01051076  RH  027%=      5-min Rain = 0
KDO1 131553Z 07009KT 10/M08 A3038 RMK A01 T01041076  RH  028%=      5-min Rain = 0
KDO1 131554Z 06007KT 10/M08 A3038 RMK A01 T01021075  RH  028%=      5-min Rain = 0
KDO1 131555Z 08007KT 10/M08 A3038 RMK A01 T01031075  RH  028%=      5-min Rain = 0
KDO1 131556Z 09010KT 10/M08 A3038 RMK A01 T01031075  RH  028%=      5-min Rain = 0
KDO1 131557Z 10009KT 10/M08 A3038 RMK A01 T01041076  RH  028%=      5-min Rain = 0
KDO1 131558Z 10009KT 10/M08 A3038 RMK A01 T01041075  RH  028%=      5-min Rain = 0
KDO1 131559Z 09009KT 10/M08 A3038 RMK A01 T01041076  RH  028%=      5-min Rain = 0
KDO1 131600Z 10010KT 10/M08 A3038 RMK A01 T01031075  RH  028%=      5-min Rain = 0
KDO1 131601Z 09008KT 10/M07 A3038 RMK A01 T01031074  RH  028%=      5-min Rain = 0
KDO1 131602Z 07007KT 10/M07 A3038 RMK A01 T01041072  RH  028%=      5-min Rain = 0
KDO1 131603Z 07007KT 11/M07 A3038 RMK A01 T01051073  RH  028%=      5-min Rain = 0
KDO1 131604Z 07007KT 11/M07 A3038 RMK A01 T01051072  RH  028%=      5-min Rain = 0
KDO1 131605Z 08006KT 11/M07 A3038 RMK A01 T01061071  RH  028%=      5-min Rain = 0
KDO1 131606Z 08008KT 11/M07 A3038 RMK A01 T01071070  RH  028%=      5-min Rain = 0
KDO1 131607Z 07008KT 11/M07 A3038 RMK A01 T01091069  RH  028%=      5-min Rain = 0
KDO1 131608Z 07008KT 11/M07 A3038 RMK A01 T01081068  RH  028%=      5-min Rain = 0
KDO1 131609Z 09009KT 11/M07 A3038 RMK A01 T01071069  RH  028%=      5-min Rain = 0
KDO1 131610Z 09009KT 11/M07 A3038 RMK A01 T01071068  RH  028%=      5-min Rain = 0
KDO1 131611Z 09010KT 11/M07 A3038 RMK A01 T01081068  RH  028%=      5-min Rain = 0
KDO1 131612Z 08009KT 11/M07 A3038 RMK A01 T01071068  RH  028%=      5-min Rain = 0
KDO1 131613Z 10005KT 11/M07 A3038 RMK A01 T01071068  RH  029%=      5-min Rain = 0
KDO1 131614Z 07006KT 11/M07 A3038 RMK A01 T01071067  RH  029%=      5-min Rain = 0
KDO1 131615Z 06008KT 11/M07 A3038 RMK A01 T01081065  RH  029%=      5-min Rain = 0
KDO1 131616Z 08007KT 11/M06 A3038 RMK A01 T01091064  RH  029%=      5-min Rain = 0
KDO1 131617Z 09009KT 11/M06 A3038 RMK A01 T01111063  RH  029%=      5-min Rain = 0
KDO1 131618Z 10008KT 11/M06 A3038 RMK A01 T01111061  RH  029%=      5-min Rain = 0
KDO1 131619Z 10008KT 11/M06 A3038 RMK A01 T01111060  RH  030%=      5-min Rain = 0
KDO1 131620Z 09006KT 11/M06 A3038 RMK A01 T01131063  RH  029%=      5-min Rain = 0
KDO1 131621Z 08007KT 12/M06 A3038 RMK A01 T01151061  RH  029%=      5-min Rain = 0
KDO1 131622Z 09006KT 12/M06 A3038 RMK A01 T01161063  RH  028%=      5-min Rain = 0
KDO1 131623Z 07005KT 11/M06 A3038 RMK A01 T01141064  RH  028%=      5-min Rain = 0
KDO1 131624Z 07008KT 11/M06 A3038 RMK A01 T01131064  RH  028%=      5-min Rain = 0
KDO1 131625Z 08009G14KT 11/M07 A3038 RMK A01 T01131065  RH  028%=      5-min Rain = 0
KDO1 131626Z 13008KT 11/M06 A3038 RMK A01 T01141061  RH  029%=      5-min Rain = 0
KDO1 131627Z 13007KT 12/M06 A3038 RMK A01 T01171059  RH  029%=      5-min Rain = 0
KDO1 131628Z 14007KT 12/M06 A3038 RMK A01 T01181062  RH  028%=      5-min Rain = 0
KDO1 131629Z 13004KT 12/M06 A3038 RMK A01 T01151064  RH  028%=      5-min Rain = 0
KDO1 131630Z 11003KT 11/M06 A3038 RMK A01 T01141064  RH  028%=      5-min Rain = 0
KDO1 131631Z 07005KT 11/M06 A3038 RMK A01 T01141062  RH  028%=      5-min Rain = 0
KDO1 131632Z 08005KT 12/M06 A3038 RMK A01 T01151063  RH  028%=      5-min Rain = 0
KDO1 131633Z 10003KT 12/M06 A3038 RMK A01 T01151063  RH  028%=      5-min Rain = 0
KDO1 131634Z 11008KT 12/M06 A3038 RMK A01 T01161061  RH  028%=      5-min Rain = 0
KDO1 131635Z 12007KT 12/M06 A3038 RMK A01 T01181062  RH  028%=      5-min Rain = 0
KDO1 131636Z 11004KT 12/M07 A3038 RMK A01 T01151065  RH  028%=      5-min Rain = 0
KDO1 131637Z 11005KT 12/M06 A3038 RMK A01 T01151062  RH  028%=      5-min Rain = 0
KDO1 131638Z 11002KT 12/M06 A3038 RMK A01 T01151063  RH  028%=      5-min Rain = 0
KDO1 131639Z 07003KT 12/M06 A3038 RMK A01 T01151062  RH  028%=      5-min Rain = 0
KDO1 131640Z 06004KT 12/M06 A3038 RMK A01 T01171062  RH  028%=      5-min Rain = 0
KDO1 131641Z 04005KT 12/M06 A3038 RMK A01 T01171063  RH  028%=      5-min Rain = 0
KDO1 131642Z 08006KT 12/M06 A3038 RMK A01 T01171062  RH  028%=      5-min Rain = 0
KDO1 131643Z 05006KT 12/M06 A3038 RMK A01 T01201060  RH  028%=      5-min Rain = 0
KDO1 131644Z 04005KT 12/M06 A3038 RMK A01 T01201063  RH  027%=      5-min Rain = 0
KDO1 131645Z 07007KT 12/M06 A3038 RMK A01 T01181063  RH  028%=      5-min Rain = 0
KDO1 131646Z 11008KT 12/M06 A3038 RMK A01 T01211058  RH  028%=      5-min Rain = 0
KDO1 131647Z 09006KT 12/M06 A3038 RMK A01 T01241060  RH  027%=      5-min Rain = 0
KDO1 131648Z 11007KT 12/M06 A3038 RMK A01 T01221063  RH  027%=      5-min Rain = 0
KDO1 131649Z 12006KT 12/M06 A3038 RMK A01 T01191061  RH  028%=      5-min Rain = 0
KDO1 131650Z 12006KT 12/M06 A3038 RMK A01 T01201062  RH  027%=      5-min Rain = 0
KDO1 131651Z 11009KT 12/M06 A3038 RMK A01 T01211062  RH  027%=      5-min Rain = 0
KDO1 131652Z 11009KT 12/M06 A3038 RMK A01 T01211062  RH  027%=      5-min Rain = 0
KDO1 131653Z 12008KT 12/M06 A3038 RMK A01 T01221063  RH  027%=      5-min Rain = 0
KDO1 131654Z 14005KT 12/M06 A3038 RMK A01 T01221064  RH  027%=      5-min Rain = 0
KDO1 131655Z 12004KT 12/M06 A3038 RMK A01 T01221064  RH  027%=      5-min Rain = 0
KDO1 131656Z 09006KT 12/M06 A3038 RMK A01 T01221063  RH  027%=      5-min Rain = 0
KDO1 131657Z 07007KT 12/M06 A3038 RMK A01 T01241062  RH  027%=      5-min Rain = 0
KDO1 131658Z 08006KT 13/M06 A3038 RMK A01 T01261064  RH  026%=      5-min Rain = 0
KDO1 131659Z 08008KT 13/M06 A3038 RMK A01 T01251064  RH  026%=      5-min Rain = 0
KDO1 131700Z 09009KT 12/M07 A3038 RMK A01 T01221066  RH  026%=      5-min Rain = 0
KDO1 131701Z 10011KT 12/M06 A3038 RMK A01 T01231064  RH  027%=      5-min Rain = 0
KDO1 131702Z 09006KT 12/M07 A3038 RMK A01 T01221066  RH  026%=      5-min Rain = 0
KDO1 131703Z 13007KT 12/M07 A3038 RMK A01 T01201065  RH  027%=      5-min Rain = 0
KDO1 131704Z 13006KT 12/M07 A3038 RMK A01 T01191066  RH  027%=      5-min Rain = 0
KDO1 131705Z 15004KT 12/M07 A3038 RMK A01 T01191065  RH  027%=      5-min Rain = 0
KDO1 131706Z 12004KT 12/M06 A3038 RMK A01 T01191063  RH  027%=      5-min Rain = 0
KDO1 131707Z 11003KT 12/M07 A3038 RMK A01 T01201065  RH  027%=      5-min Rain = 0
KDO1 131708Z 12003KT 12/M06 A3038 RMK A01 T01211064  RH  027%=      5-min Rain = 0
KDO1 131709Z 09004KT 12/M07 A3038 RMK A01 T01221065  RH  027%=      5-min Rain = 0
KDO1 131710Z 09006KT 12/M06 A3038 RMK A01 T01231064  RH  026%=      5-min Rain = 0
KDO1 131711Z 08006KT 13/M06 A3038 RMK A01 T01271062  RH  026%=      5-min Rain = 0
KDO1 131712Z 10009KT 13/M06 A3038 RMK A01 T01321061  RH  026%=      5-min Rain = 0
KDO1 131713Z 09009KT 13/M06 A3038 RMK A01 T01321064  RH  025%=      5-min Rain = 0
KDO1 131714Z 09007KT 13/M07 A3038 RMK A01 T01291066  RH  025%=      5-min Rain = 0
KDO1 131715Z 12005KT 13/M07 A3038 RMK A01 T01271065  RH  026%=      5-min Rain = 0
KDO1 131716Z 12006KT 13/M06 A3038 RMK A01 T01261064  RH  026%=      5-min Rain = 0
KDO1 131717Z 12005KT 13/M07 A3038 RMK A01 T01271066  RH  026%=      5-min Rain = 0
KDO1 131718Z 09003KT 13/M07 A3038 RMK A01 T01261065  RH  026%=      5-min Rain = 0
KDO1 131719Z 07002KT 12/M07 A3038 RMK A01 T01241066  RH  026%=      5-min Rain = 0
KDO1 131720Z 04002KT 12/M07 A3038 RMK A01 T01231068  RH  026%=      5-min Rain = 0
KDO1 131721Z 03001KT 12/M07 A3038 RMK A01 T01221067  RH  026%=      5-min Rain = 0
KDO1 131722Z 11002KT 12/M07 A3038 RMK A01 T01221066  RH  026%=      5-min Rain = 0
KDO1 131723Z 10005KT 12/M06 A3038 RMK A01 T01231064  RH  027%=      5-min Rain = 0
KDO1 131724Z 05004KT 13/M06 A3038 RMK A01 T01271064  RH  026%=      5-min Rain = 0
KDO1 131725Z 07003G9KT 13/M06 A3038 RMK A01 T01281064  RH  026%=      5-min Rain = 0
KDO1 131726Z 09008KT 13/M07 A3038 RMK A01 T01281065  RH  025%=      5-min Rain = 0
KDO1 131727Z 08008KT 13/M06 A3038 RMK A01 T01311063  RH  025%=      5-min Rain = 0
KDO1 131728Z 07007KT 13/M07 A3038 RMK A01 T01321065  RH  025%=      5-min Rain = 0
KDO1 131729Z 11003KT 13/M07 A3038 RMK A01 T01311066  RH  025%=      5-min Rain = 0
KDO1 131730Z 11002KT 13/M07 A3038 RMK A01 T01301067  RH  025%=      5-min Rain = 0
KDO1 131731Z 05006KT 13/M07 A3038 RMK A01 T01301065  RH  025%=      5-min Rain = 0
KDO1 131732Z 04004KT 13/M07 A3038 RMK A01 T01311067  RH  025%=      5-min Rain = 0
KDO1 131733Z 02004KT 13/M07 A3038 RMK A01 T01291067  RH  025%=      5-min Rain = 0
KDO1 131734Z 02005KT 13/M07 A3038 RMK A01 T01281068  RH  025%=      5-min Rain = 0
KDO1 131735Z 05002KT 13/M07 A3038 RMK A01 T01271068  RH  025%=      5-min Rain = 0
KDO1 131736Z 11003KT 13/M07 A3038 RMK A01 T01261068  RH  025%=      5-min Rain = 0
KDO1 131737Z 11007KT 13/M07 A3038 RMK A01 T01291067  RH  025%=      5-min Rain = 0
KDO1 131738Z 13009KT 13/M07 A3037 RMK A01 T01311065  RH  025%=      5-min Rain = 0
KDO1 131739Z 11006KT 13/M07 A3038 RMK A01 T01341065  RH  025%=      5-min Rain = 0
KDO1 131740Z 08003KT 13/M07 A3038 RMK A01 T01341066  RH  024%=      5-min Rain = 0
KDO1 131741Z 11003KT 13/M07 A3037 RMK A01 T01331065  RH  024%=      5-min Rain = 0
KDO1 131742Z 14002KT 13/M06 A3037 RMK A01 T01341063  RH  025%=      5-min Rain = 0
KDO1 131743Z 15004KT 14/M06 A3037 RMK A01 T01361063  RH  025%=      5-min Rain = 0
KDO1 131744Z 12006KT 14/M06 A3037 RMK A01 T01371062  RH  024%=      5-min Rain = 0
KDO1 131745Z 11006KT 14/M06 A3037 RMK A01 T01401063  RH  024%=      5-min Rain = 0
KDO1 131746Z 12006KT 14/M07 A3037 RMK A01 T01371065  RH  024%=      5-min Rain = 0
KDO1 131747Z 11005KT 14/M06 A3037 RMK A01 T01361064  RH  024%=      5-min Rain = 0
KDO1 131748Z 12004KT 14/M07 A3037 RMK A01 T01351066  RH  024%=      5-min Rain = 0
KDO1 131749Z 13004KT 13/M07 A3037 RMK A01 T01321065  RH  025%=      5-min Rain = 0
KDO1 131750Z 08004KT 13/M06 A3037 RMK A01 T01341061  RH  025%=      5-min Rain = 0
KDO1 131751Z 05003KT 14/M06 A3037 RMK A01 T01381060  RH  025%=      5-min Rain = 0
KDO1 131752Z 06001KT 14/M06 A3037 RMK A01 T01371064  RH  024%=      5-min Rain = 0
KDO1 131753Z 06001KT 14/M06 A3037 RMK A01 T01371060  RH  025%=      5-min Rain = 0
KDO1 131754Z 14004KT 14/M06 A3037 RMK A01 T01391059  RH  025%=      5-min Rain = 0
KDO1 131755Z 14004KT 14/M06 A3037 RMK A01 T01411061  RH  024%=      5-min Rain = 0
KDO1 131756Z 08003KT 14/M06 A3037 RMK A01 T01411063  RH  024%=      5-min Rain = 0
KDO1 131757Z 09003KT 14/M06 A3037 RMK A01 T01401062  RH  024%=      5-min Rain = 0
KDO1 131758Z 15004KT 14/M06 A3037 RMK A01 T01391062  RH  024%=      5-min Rain = 0
KDO1 131759Z 14005G10KT 14/M06 A3037 RMK A01 T01391060  RH  025%=      5-min Rain = 0
KDO1 131800Z 10007KT 14/M06 A3037 RMK A01 T01421059  RH  024%=      5-min Rain = 0
KDO1 131801Z 10007KT 14/M06 A3037 RMK A01 T01431060  RH  024%=      5-min Rain = 0
KDO1 131802Z 09009KT 15/M06 A3037 RMK A01 T01451059  RH  024%=      5-min Rain = 0
KDO1 131803Z 10010KT 14/M06 A3037 RMK A01 T01431062  RH  024%=      5-min Rain = 0
KDO1 131804Z 11008KT 14/M06 A3037 RMK A01 T01391064  RH  024%=      5-min Rain = 0
KDO1 131805Z 13007KT 14/M06 A3037 RMK A01 T01361063  RH  025%=      5-min Rain = 0
KDO1 131806Z 11003KT 14/M06 A3037 RMK A01 T01361062  RH  025%=      5-min Rain = 0
KDO1 131807Z 07007KT 14/M06 A3037 RMK A01 T01371061  RH  025%=      5-min Rain = 0
KDO1 131808Z 07009KT 14/M06 A3037 RMK A01 T01381060  RH  025%=      5-min Rain = 0
KDO1 131809Z 07008KT 14/M06 A3037 RMK A01 T01411058  RH  025%=      5-min Rain = 0
KDO1 131810Z 08008KT 14/M06 A3037 RMK A01 T01421060  RH  024%=      5-min Rain = 0
KDO1 131811Z 08007KT 14/M06 A3037 RMK A01 T01421059  RH  024%=      5-min Rain = 0
KDO1 131812Z 07006KT 14/M06 A3037 RMK A01 T01421061  RH  024%=      5-min Rain = 0
KDO1 131813Z 07006KT 14/M06 A3037 RMK A01 T01401060  RH  024%=      5-min Rain = 0
KDO1 131814Z 06007KT 14/M06 A3037 RMK A01 T01401061  RH  024%=      5-min Rain = 0
KDO1 131815Z 07005KT 14/M06 A3037 RMK A01 T01381062  RH  024%=      5-min Rain = 0
KDO1 131816Z 11007KT 14/M06 A3036 RMK A01 T01381060  RH  025%=      5-min Rain = 0
KDO1 131817Z 10004KT 14/M06 A3036 RMK A01 T01381062  RH  024%=      5-min Rain = 0
KDO1 131818Z 09004KT 14/M06 A3036 RMK A01 T01351063  RH  025%=      5-min Rain = 0
KDO1 131819Z 10005KT 14/M06 A3036 RMK A01 T01351061  RH  025%=      5-min Rain = 0
KDO1 131820Z 06002KT 14/M06 A3036 RMK A01 T01361060  RH  025%=      5-min Rain = 0
KDO1 131821Z 01004KT 14/M06 A3036 RMK A01 T01391057  RH  025%=      5-min Rain = 0
KDO1 131822Z 01003KT 14/M06 A3036 RMK A01 T01411059  RH  025%=      5-min Rain = 0
KDO1 131823Z 34002KT 14/M06 A3036 RMK A01 T01401058  RH  025%=      5-min Rain = 0
KDO1 131824Z 03002KT 14/M06 A3036 RMK A01 T01411057  RH  025%=      5-min Rain = 0
KDO1 131825Z 03003KT 14/M06 A3036 RMK A01 T01421058  RH  025%=      5-min Rain = 0
KDO1 131826Z 05002KT 14/M06 A3036 RMK A01 T01431056  RH  025%=      5-min Rain = 0
KDO1 131827Z 08005G10KT 14/M06 A3036 RMK A01 T01441055  RH  025%=      5-min Rain = 0
KDO1 131828Z 10009KT 15/M06 A3036 RMK A01 T01461055  RH  024%=      5-min Rain = 0
KDO1 131829Z 10008KT 15/M06 A3036 RMK A01 T01471055  RH  024%=      5-min Rain = 0
KDO1 131830Z 12006KT 15/M06 A3036 RMK A01 T01481056  RH  024%=      5-min Rain = 0
KDO1 131831Z 09006KT 15/M06 A3036 RMK A01 T01471056  RH  024%=      5-min Rain = 0
KDO1 131832Z 05007KT 15/M06 A3036 RMK A01 T01461057  RH  024%=      5-min Rain = 0
KDO1 131833Z 03004KT 14/M06 A3036 RMK A01 T01431059  RH  024%=      5-min Rain = 0
KDO1 131834Z 06002KT 14/M06 A3036 RMK A01 T01401057  RH  025%=      5-min Rain = 0
KDO1 131835Z 12004KT 14/M06 A3036 RMK A01 T01391058  RH  025%=      5-min Rain = 0
KDO1 131836Z 13005KT 14/M06 A3036 RMK A01 T01391057  RH  025%=      5-min Rain = 0
KDO1 131837Z 13002KT 14/M06 A3036 RMK A01 T01401057  RH  025%=      5-min Rain = 0
KDO1 131838Z 11002KT 14/M06 A3036 RMK A01 T01411057  RH  025%=      5-min Rain = 0
KDO1 131839Z 09007KT 14/M05 A3036 RMK A01 T01431054  RH  025%=      5-min Rain = 0
KDO1 131840Z 11005KT 15/M05 A3036 RMK A01 T01451054  RH  025%=      5-min Rain = 0
KDO1 131841Z 13004KT 14/M06 A3036 RMK A01 T01441055  RH  025%=      5-min Rain = 0
KDO1 131842Z 14004KT 14/M06 A3036 RMK A01 T01431055  RH  025%=      5-min Rain = 0
KDO1 131843Z 07004KT 14/M05 A3036 RMK A01 T01421054  RH  025%=      5-min Rain = 0
KDO1 131844Z 06003KT 15/M05 A3036 RMK A01 T01451054  RH  025%=      5-min Rain = 0
KDO1 131845Z 06002KT 15/M05 A3036 RMK A01 T01451053  RH  025%=      5-min Rain = 0
KDO1 131846Z 07003KT 15/M05 A3036 RMK A01 T01461054  RH  025%=      5-min Rain = 0
KDO1 131847Z 01001KT 14/M06 A3035 RMK A01 T01441059  RH  024%=      5-min Rain = 0
KDO1 131848Z 35001KT 14/M06 A3035 RMK A01 T01431056  RH  025%=      5-min Rain = 0
KDO1 131849Z 36001KT 14/M06 A3035 RMK A01 T01431055  RH  025%=      5-min Rain = 0
KDO1 131850Z 03001KT 14/M06 A3035 RMK A01 T01431057  RH  025%=      5-min Rain = 0
KDO1 131851Z 13003KT 15/M06 A3035 RMK A01 T01451055  RH  025%=      5-min Rain = 0
KDO1 131852Z 12007KT 15/M05 A3035 RMK A01 T01461054  RH  025%=      5-min Rain = 0
KDO1 131853Z 11004KT 15/M05 A3035 RMK A01 T01481053  RH  025%=      5-min Rain = 0
KDO1 131854Z 09004KT 15/M06 A3035 RMK A01 T01501055  RH  024%=      5-min Rain = 0
KDO1 131855Z 10006KT 15/M05 A3035 RMK A01 T01491054  RH  024%=      5-min Rain = 0
KDO1 131856Z 08002KT 15/M06 A3035 RMK A01 T01481056  RH  024%=      5-min Rain = 0
KDO1 131857Z 07004KT 15/M05 A3035 RMK A01 T01471054  RH  024%=      5-min Rain = 0
KDO1 131858Z 08005KT 15/M05 A3035 RMK A01 T01481052  RH  025%=      5-min Rain = 0
KDO1 131859Z 13005KT 15/M05 A3035 RMK A01 T01501052  RH  024%=      5-min Rain = 0
KDO1 131900Z 12004KT 15/M06 A3035 RMK A01 T01491056  RH  024%=      5-min Rain = 0
KDO1 131901Z 09003KT 15/M06 A3035 RMK A01 T01471055  RH  024%=      5-min Rain = 0
KDO1 131902Z 10001KT 15/M06 A3035 RMK A01 T01461055  RH  025%=      5-min Rain = 0
KDO1 131903Z 06006G11KT 15/M05 A3035 RMK A01 T01471054  RH  025%=      5-min Rain = 0
KDO1 131904Z 07010KT 15/M05 A3035 RMK A01 T01511052  RH  024%=      5-min Rain = 0
KDO1 131905Z 06009KT 15/M06 A3035 RMK A01 T01521055  RH  024%=      5-min Rain = 0
KDO1 131906Z 09005KT 15/M06 A3035 RMK A01 T01511056  RH  024%=      5-min Rain = 0
KDO1 131907Z 11004KT 15/M06 A3035 RMK A01 T01491056  RH  024%=      5-min Rain = 0
KDO1 131908Z 06005KT 15/M05 A3035 RMK A01 T01491054  RH  024%=      5-min Rain = 0
KDO1 131909Z 05006KT 15/M05 A3035 RMK A01 T01511054  RH  024%=      5-min Rain = 0
KDO1 131910Z 10004KT 15/M06 A3035 RMK A01 T01501056  RH  024%=      5-min Rain = 0
KDO1 131911Z 10004KT 15/M06 A3035 RMK A01 T01491056  RH  024%=      5-min Rain = 0
KDO1 131912Z 08006KT 15/M05 A3035 RMK A01 T01501054  RH  024%=      5-min Rain = 0
KDO1 131913Z 09008KT 15/M06 A3035 RMK A01 T01501056  RH  024%=      5-min Rain = 0
KDO1 131914Z 07005G10KT 15/M06 A3035 RMK A01 T01491057  RH  024%=      5-min Rain = 0
KDO1 131915Z 09002KT 15/M06 A3035 RMK A01 T01461059  RH  024%=      5-min Rain = 0
KDO1 131916Z 13000KT 15/M05 A3035 RMK A01 T01451054  RH  025%=      5-min Rain = 0
KDO1 131917Z 11002KT 15/M05 A3035 RMK A01 T01481054  RH  024%=      5-min Rain = 0
KDO1 131918Z 05003KT 15/M06 A3035 RMK A01 T01501056  RH  024%=      5-min Rain = 0
KDO1 131919Z 05006KT 15/M05 A3035 RMK A01 T01521053  RH  024%=      5-min Rain = 0
KDO1 131920Z 04003KT 15/M05 A3035 RMK A01 T01521054  RH  024%=      5-min Rain = 0
KDO1 131921Z 06005KT 15/M05 A3034 RMK A01 T01511053  RH  024%=      5-min Rain = 0
KDO1 131922Z 06003KT 15/M06 A3034 RMK A01 T01521055  RH  024%=      5-min Rain = 0
KDO1 131923Z 09003KT 15/M06 A3034 RMK A01 T01501056  RH  024%=      5-min Rain = 0
KDO1 131924Z 07007KT 15/M05 A3034 RMK A01 T01501054  RH  024%=      5-min Rain = 0
KDO1 131925Z 06011KT 15/M05 A3034 RMK A01 T01541052  RH  024%=      5-min Rain = 0
KDO1 131926Z 07010KT 16/M05 A3034 RMK A01 T01561053  RH  023%=      5-min Rain = 0
KDO1 131927Z 08007KT 16/M05 A3034 RMK A01 T01571054  RH  023%=      5-min Rain = 0
KDO1 131928Z 06005KT 16/M05 A3034 RMK A01 T01551054  RH  023%=      5-min Rain = 0
KDO1 131929Z 13005KT 15/M05 A3034 RMK A01 T01541053  RH  024%=      5-min Rain = 0
KDO1 131930Z 14005KT 16/M05 A3034 RMK A01 T01551054  RH  023%=      5-min Rain = 0
KDO1 131931Z 15004KT 16/M05 A3034 RMK A01 T01551054  RH  023%=      5-min Rain = 0
KDO1 131932Z 13005KT 16/M05 A3034 RMK A01 T01551053  RH  023%=      5-min Rain = 0
KDO1 131933Z 12002KT 16/M06 A3034 RMK A01 T01551056  RH  023%=      5-min Rain = 0
KDO1 131934Z 12008KT 15/M05 A3034 RMK A01 T01531054  RH  023%=      5-min Rain = 0
KDO1 131935Z 11009KT 15/M05 A3033 RMK A01 T01531054  RH  024%=      5-min Rain = 0
KDO1 131936Z 11007KT 15/M05 A3033 RMK A01 T01531054  RH  023%=      5-min Rain = 0
KDO1 131937Z 11006KT 15/M05 A3033 RMK A01 T01541051  RH  024%=      5-min Rain = 0
KDO1 131938Z 11004KT 16/M05 A3033 RMK A01 T01561054  RH  023%=      5-min Rain = 0
KDO1 131939Z 06005KT 16/M05 A3033 RMK A01 T01551054  RH  023%=      5-min Rain = 0
KDO1 131940Z 05005KT 15/M05 A3033 RMK A01 T01541054  RH  023%=      5-min Rain = 0
KDO1 131941Z 06004KT 15/M05 A3033 RMK A01 T01541054  RH  023%=      5-min Rain = 0
KDO1 131942Z 05002KT 15/M06 A3033 RMK A01 T01521057  RH  023%=      5-min Rain = 0
KDO1 131943Z 26002KT 15/M06 A3033 RMK A01 T01491057  RH  024%=      5-min Rain = 0
KDO1 131944Z 21002KT 15/M06 A3033 RMK A01 T01491055  RH  024%=      5-min Rain = 0
KDO1 131945Z 14002KT 15/M06 A3033 RMK A01 T01491055  RH  024%=      5-min Rain = 0
KDO1 131946Z 08008KT 15/M05 A3033 RMK A01 T01511052  RH  024%=      5-min Rain = 0
KDO1 131947Z 07004KT 15/M05 A3033 RMK A01 T01541053  RH  024%=      5-min Rain = 0
KDO1 131948Z 08009KT 16/M05 A3032 RMK A01 T01551052  RH  024%=      5-min Rain = 0
KDO1 131949Z 11005KT 16/M05 A3033 RMK A01 T01571053  RH  023%=      5-min Rain = 0
KDO1 131950Z 11004KT 16/M05 A3032 RMK A01 T01551053  RH  023%=      5-min Rain = 0
KDO1 131951Z 07009G14KT 16/M05 A3032 RMK A01 T01561050  RH  024%=      5-min Rain = 0
KDO1 131952Z 08012KT 16/M05 A3032 RMK A01 T01581052  RH  023%=      5-min Rain = 0
KDO1 131953Z 07012KT 16/M05 A3032 RMK A01 T01571052  RH  023%=      5-min Rain = 0
KDO1 131954Z 05010KT 16/M05 A3032 RMK A01 T01581051  RH  023%=      5-min Rain = 0
KDO1 131955Z 06010KT 16/M05 A3032 RMK A01 T01581053  RH  023%=      5-min Rain = 0
KDO1 131956Z 07009KT 16/M05 A3032 RMK A01 T01571052  RH  023%=      5-min Rain = 0
KDO1 131957Z 05006KT 16/M05 A3032 RMK A01 T01561054  RH  023%=      5-min Rain = 0
KDO1 131958Z 07006KT 15/M05 A3032 RMK A01 T01541054  RH  023%=      5-min Rain = 0
KDO1 131959Z 07006KT 15/M05 A3032 RMK A01 T01541054  RH  024%=      5-min Rain = 0
KDO1 132000Z 05004KT 15/M05 A3032 RMK A01 T01531054  RH  023%=      5-min Rain = 0
KDO1 132001Z 04002KT 15/M06 A3032 RMK A01 T01501056  RH  024%=      5-min Rain = 0
KDO1 132002Z 11004G11KT 15/M05 A3032 RMK A01 T01501054  RH  024%=      5-min Rain = 0
KDO1 132003Z 10009KT 15/M05 A3032 RMK A01 T01541051  RH  024%=      5-min Rain = 0
KDO1 132004Z 12007KT 16/M05 A3032 RMK A01 T01561053  RH  023%=      5-min Rain = 0
KDO1 132005Z 11003KT 16/M05 A3032 RMK A01 T01561050  RH  024%=      5-min Rain = 0
KDO1 132006Z 12005KT 16/M05 A3032 RMK A01 T01581052  RH  023%=      5-min Rain = 0
KDO1 132007Z 13004KT 16/M05 A3032 RMK A01 T01561054  RH  023%=      5-min Rain = 0
KDO1 132008Z 08001KT 16/M05 A3032 RMK A01 T01561053  RH  023%=      5-min Rain = 0
KDO1 132009Z 08002KT 16/M05 A3032 RMK A01 T01551054  RH  023%=      5-min Rain = 0
KDO1 132010Z 12008KT 16/M05 A3032 RMK A01 T01551052  RH  024%=      5-min Rain = 0
KDO1 132011Z 09008KT 16/M05 A3032 RMK A01 T01571053  RH  023%=      5-min Rain = 0
KDO1 132012Z 09002KT 16/M06 A3032 RMK A01 T01571057  RH  022%=      5-min Rain = 0
KDO1 132013Z 10001KT 16/M06 A3032 RMK A01 T01551056  RH  023%=      5-min Rain = 0
KDO1 132014Z 11006G11KT 16/M05 A3032 RMK A01 T01571053  RH  023%=      5-min Rain = 0
KDO1 132015Z 11011KT 16/M05 A3032 RMK A01 T01601051  RH  023%=      5-min Rain = 0
KDO1 132016Z 12007KT 16/M06 A3032 RMK A01 T01601055  RH  022%=      5-min Rain = 0
KDO1 132017Z 12004KT 16/M06 A3032 RMK A01 T01561056  RH  023%=      5-min Rain = 0
KDO1 132018Z 11009KT 16/M06 A3032 RMK A01 T01551055  RH  023%=      5-min Rain = 0
KDO1 132019Z 11007KT 15/M06 A3032 RMK A01 T01531058  RH  023%=      5-min Rain = 0
KDO1 132020Z 09006KT 15/M06 A3032 RMK A01 T01511057  RH  023%=      5-min Rain = 0
KDO1 132021Z 07006KT 15/M06 A3032 RMK A01 T01511056  RH  023%=      5-min Rain = 0
KDO1 132022Z 08003KT 15/M06 A3031 RMK A01 T01511058  RH  023%=      5-min Rain = 0
KDO1 132023Z 16001KT 15/M06 A3031 RMK A01 T01481059  RH  023%=      5-min Rain = 0
KDO1 132024Z 22000KT 15/M06 A3031 RMK A01 T01461059  RH  024%=      5-min Rain = 0
KDO1 132025Z 02001KT 15/M06 A3031 RMK A01 T01451059  RH  024%=      5-min Rain = 0
KDO1 132026Z 04002KT 15/M06 A3031 RMK A01 T01461057  RH  024%=      5-min Rain = 0
KDO1 132027Z 12004KT 15/M06 A3031 RMK A01 T01471058  RH  024%=      5-min Rain = 0
KDO1 132028Z 10007KT 15/M06 A3031 RMK A01 T01481059  RH  023%=      5-min Rain = 0
KDO1 132029Z 08007KT 15/M06 A3031 RMK A01 T01481057  RH  024%=      5-min Rain = 0
KDO1 132030Z 05009KT 15/M06 A3031 RMK A01 T01501056  RH  024%=      5-min Rain = 0
KDO1 132031Z 04009KT 15/M06 A3031 RMK A01 T01521060  RH  023%=      5-min Rain = 0
KDO1 132032Z 03009G15KT 15/M07 A3031 RMK A01 T01521065  RH  022%=      5-min Rain = 0
KDO1 132033Z 07012KT 15/M06 A3031 RMK A01 T01541061  RH  022%=      5-min Rain = 0
KDO1 132034Z 07010KT 16/M06 A3031 RMK A01 T01581057  RH  022%=      5-min Rain = 0
KDO1 132035Z 05012KT 16/M06 A3031 RMK A01 T01621058  RH  022%=      5-min Rain = 0
KDO1 132036Z 06015KT 16/M06 A3031 RMK A01 T01631062  RH  021%=      5-min Rain = 0
KDO1 132037Z 04015KT 16/M07 A3031 RMK A01 T01611065  RH  021%=      5-min Rain = 0
KDO1 132038Z 06012KT 16/M07 A3031 RMK A01 T01591066  RH  021%=      5-min Rain = 0
KDO1 132039Z 05017KT 16/M07 A3031 RMK A01 T01601067  RH  021%=      5-min Rain = 0
KDO1 132040Z 05013KT 16/M07 A3031 RMK A01 T01571069  RH  020%=      5-min Rain = 0
KDO1 132041Z 04016KT 16/M07 A3031 RMK A01 T01561068  RH  021%=      5-min Rain = 0
KDO1 132042Z 04015KT 15/M07 A3031 RMK A01 T01541069  RH  021%=      5-min Rain = 0
KDO1 132043Z 05015G20KT 15/M07 A3031 RMK A01 T01531068  RH  021%=      5-min Rain = 0
KDO1 132044Z 05016KT 15/M07 A3031 RMK A01 T01511070  RH  021%=      5-min Rain = 0
KDO1 132045Z 05015KT 15/M07 A3031 RMK A01 T01481072  RH  021%=      5-min Rain = 0
KDO1 132046Z 04013KT 15/M07 A3031 RMK A01 T01471071  RH  022%=      5-min Rain = 0
KDO1 132047Z 04014G20KT 15/M07 A3032 RMK A01 T01491070  RH  021%=      5-min Rain = 0
KDO1 132048Z 05017KT 15/M07 A3032 RMK A01 T01491071  RH  021%=      5-min Rain = 0
KDO1 132049Z 05015KT 15/M07 A3031 RMK A01 T01481070  RH  021%=      5-min Rain = 0
KDO1 132050Z 04013KT 15/M07 A3031 RMK A01 T01481070  RH  021%=      5-min Rain = 0
KDO1 132051Z 04018G23KT 15/M07 A3032 RMK A01 T01461071  RH  022%=      5-min Rain = 0
KDO1 132052Z 05014KT 14/M07 A3032 RMK A01 T01441072  RH  022%=      5-min Rain = 0
KDO1 132053Z 05014KT 14/M07 A3032 RMK A01 T01441071  RH  022%=      5-min Rain = 0
KDO1 132054Z 05013KT 14/M07 A3032 RMK A01 T01441071  RH  022%=      5-min Rain = 0
KDO1 132055Z 03013KT 14/M07 A3032 RMK A01 T01431071  RH  022%=      5-min Rain = 0
KDO1 132056Z 05012KT 14/M07 A3032 RMK A01 T01411072  RH  022%=      5-min Rain = 0
KDO1 132057Z 05011KT 14/M07 A3032 RMK A01 T01411071  RH  022%=      5-min Rain = 0
KDO1 132058Z 05011KT 14/M07 A3031 RMK A01 T01411070  RH  022%=      5-min Rain = 0
KDO1 132059Z 06013KT 14/M07 A3031 RMK A01 T01421071  RH  022%=      5-min Rain = 0
KDO1 132100Z 05015KT 14/M07 A3031 RMK A01 T01401072  RH  022%=      5-min Rain = 0
KDO1 132101Z 05014KT 14/M07 A3032 RMK A01 T01401072  RH  022%=      5-min Rain = 0
KDO1 132102Z 05014G20KT 14/M07 A3031 RMK A01 T01391072  RH  022%=      5-min Rain = 0
KDO1 132103Z 06015KT 14/M07 A3032 RMK A01 T01381072  RH  023%=      5-min Rain = 0
KDO1 132104Z 06013KT 14/M07 A3032 RMK A01 T01391071  RH  023%=      5-min Rain = 0
KDO1 132105Z 07012KT 14/M07 A3032 RMK A01 T01401070  RH  023%=      5-min Rain = 0
KDO1 132106Z 06012G17KT 14/M07 A3032 RMK A01 T01421070  RH  022%=      5-min Rain = 0
KDO1 132107Z 06014KT 14/M07 A3032 RMK A01 T01431069  RH  022%=      5-min Rain = 0
KDO1 132108Z 07014KT 14/M07 A3032 RMK A01 T01411072  RH  022%=      5-min Rain = 0
KDO1 132109Z 06013KT 14/M07 A3032 RMK A01 T01391072  RH  023%=      5-min Rain = 0
KDO1 132110Z 05013KT 14/M07 A3032 RMK A01 T01381071  RH  023%=      5-min Rain = 0
KDO1 132111Z 05015KT 14/M07 A3032 RMK A01 T01371072  RH  023%=      5-min Rain = 0
KDO1 132112Z 05013KT 14/M07 A3032 RMK A01 T01361071  RH  023%=      5-min Rain = 0
KDO1 132113Z 05011KT 14/M07 A3032 RMK A01 T01361071  RH  023%=      5-min Rain = 0
KDO1 132114Z 05011KT 14/M07 A3032 RMK A01 T01351071  RH  023%=      5-min Rain = 0
KDO1 132115Z 04014KT 14/M07 A3032 RMK A01 T01351070  RH  023%=      5-min Rain = 0
KDO1 132116Z 05010KT 14/M07 A3032 RMK A01 T01361070  RH  023%=      5-min Rain = 0
KDO1 132117Z 07011KT 14/M07 A3032 RMK A01 T01371069  RH  023%=      5-min Rain = 0
KDO1 132118Z 05011KT 14/M07 A3032 RMK A01 T01361070  RH  023%=      5-min Rain = 0
KDO1 132119Z 05011KT 14/M07 A3032 RMK A01 T01361069  RH  023%=      5-min Rain = 0
KDO1 132120Z 05011G16KT 14/M07 A3032 RMK A01 T01361069  RH  023%=      5-min Rain = 0
KDO1 132121Z 04013KT 14/M07 A3032 RMK A01 T01371069  RH  023%=      5-min Rain = 0
KDO1 132122Z 04014KT 14/M07 A3032 RMK A01 T01351070  RH  023%=      5-min Rain = 0
KDO1 132123Z 03012KT 13/M07 A3032 RMK A01 T01331070  RH  024%=      5-min Rain = 0
KDO1 132124Z 05011KT 13/M07 A3032 RMK A01 T01331069  RH  024%=      5-min Rain = 0
KDO1 132125Z 06012KT 13/M07 A3032 RMK A01 T01331069  RH  024%=      5-min Rain = 0
KDO1 132126Z 06010KT 13/M07 A3032 RMK A01 T01341069  RH  024%=      5-min Rain = 0
KDO1 132127Z 05013KT 13/M07 A3032 RMK A01 T01331069  RH  024%=      5-min Rain = 0
KDO1 132128Z 04012KT 13/M07 A3032 RMK A01 T01331069  RH  024%=      5-min Rain = 0
KDO1 132129Z 05013KT 13/M07 A3032 RMK A01 T01311071  RH  024%=      5-min Rain = 0
KDO1 132130Z 05013KT 13/M07 A3032 RMK A01 T01301070  RH  024%=      5-min Rain = 0
KDO1 132131Z 06014KT 13/M07 A3032 RMK A01 T01301070  RH  024%=      5-min Rain = 0
KDO1 132132Z 06012KT 13/M07 A3032 RMK A01 T01291070  RH  024%=      5-min Rain = 0
KDO1 132133Z 05013KT 13/M07 A3032 RMK A01 T01291070  RH  024%=      5-min Rain = 0
KDO1 132134Z 05012KT 13/M07 A3032 RMK A01 T01291070  RH  024%=      5-min Rain = 0
KDO1 132135Z 05010KT 13/M07 A3032 RMK A01 T01291069  RH  025%=      5-min Rain = 0
KDO1 132136Z 05011KT 13/M07 A3032 RMK A01 T01291069  RH  025%=      5-min Rain = 0
KDO1 132137Z 04008KT 13/M07 A3032 RMK A01 T01291069  RH  025%=      5-min Rain = 0
KDO1 132138Z 04011KT 13/M07 A3032 RMK A01 T01291070  RH  024%=      5-min Rain = 0
KDO1 132139Z 05011KT 13/M07 A3032 RMK A01 T01291069  RH  025%=      5-min Rain = 0
KDO1 132140Z 05012KT 13/M07 A3032 RMK A01 T01291070  RH  024%=      5-min Rain = 0
KDO1 132141Z 04010KT 13/M07 A3032 RMK A01 T01281070  RH  025%=      5-min Rain = 0
KDO1 132142Z 05011KT 13/M07 A3032 RMK A01 T01281069  RH  025%=      5-min Rain = 0
KDO1 132143Z 04013KT 13/M07 A3032 RMK A01 T01281069  RH  025%=      5-min Rain = 0
KDO1 132144Z 05011KT 13/M07 A3032 RMK A01 T01281070  RH  025%=      5-min Rain = 0
KDO1 132145Z 06012KT 13/M07 A3032 RMK A01 T01281069  RH  025%=      5-min Rain = 0
KDO1 132146Z 06013KT 13/M07 A3032 RMK A01 T01291069  RH  025%=      5-min Rain = 0
KDO1 132147Z 06011KT 13/M07 A3032 RMK A01 T01291069  RH  025%=      5-min Rain = 0
KDO1 132148Z 05012KT 13/M07 A3032 RMK A01 T01281069  RH  025%=      5-min Rain = 0
KDO1 132149Z 05010KT 13/M07 A3032 RMK A01 T01281069  RH  025%=      5-min Rain = 0
KDO1 132150Z 05010KT 13/M07 A3032 RMK A01 T01291068  RH  025%=      5-min Rain = 0
KDO1 132151Z 05011KT 13/M07 A3032 RMK A01 T01291069  RH  025%=      5-min Rain = 0
KDO1 132152Z 05009KT 13/M07 A3032 RMK A01 T01291068  RH  025%=      5-min Rain = 0
KDO1 132153Z 05008KT 13/M07 A3031 RMK A01 T01301068  RH  025%=      5-min Rain = 0
KDO1 132154Z 06009KT 13/M07 A3031 RMK A01 T01311067  RH  025%=      5-min Rain = 0
KDO1 132155Z 05011KT 13/M07 A3031 RMK A01 T01331067  RH  024%=      5-min Rain = 0
KDO1 132156Z 04012KT 13/M07 A3031 RMK A01 T01331067  RH  024%=      5-min Rain = 0
KDO1 132157Z 04012KT 13/M07 A3031 RMK A01 T01321068  RH  024%=      5-min Rain = 0
KDO1 132158Z 05013KT 13/M07 A3031 RMK A01 T01321067  RH  024%=      5-min Rain = 0
KDO1 132159Z 06012KT 13/M07 A3031 RMK A01 T01311068  RH  024%=      5-min Rain = 0
KDO1 132200Z 06011KT 13/M07 A3031 RMK A01 T01301068  RH  024%=      5-min Rain = 0
KDO1 132201Z 06013KT 13/M07 A3031 RMK A01 T01301068  RH  025%=      5-min Rain = 0
KDO1 132202Z 05011KT 13/M07 A3031 RMK A01 T01301068  RH  025%=      5-min Rain = 0
KDO1 132203Z 05012KT 13/M07 A3031 RMK A01 T01291068  RH  025%=      5-min Rain = 0
KDO1 132204Z 05011KT 13/M07 A3031 RMK A01 T01291068  RH  025%=      5-min Rain = 0
KDO1 132205Z 06012KT 13/M07 A3031 RMK A01 T01291068  RH  025%=      5-min Rain = 0
KDO1 132206Z 05014KT 13/M07 A3031 RMK A01 T01301068  RH  025%=      5-min Rain = 0
KDO1 132207Z 04011KT 13/M07 A3031 RMK A01 T01291068  RH  025%=      5-min Rain = 0
KDO1 132208Z 04012KT 13/M07 A3031 RMK A01 T01291067  RH  025%=      5-min Rain = 0
KDO1 132209Z 04011KT 13/M07 A3031 RMK A01 T01281067  RH  025%=      5-min Rain = 0
KDO1 132210Z 05010KT 13/M07 A3031 RMK A01 T01291066  RH  025%=      5-min Rain = 0
KDO1 132211Z 05010KT 13/M07 A3031 RMK A01 T01291065  RH  025%=      5-min Rain = 0
KDO1 132212Z 06011KT 13/M06 A3031 RMK A01 T01311064  RH  025%=      5-min Rain = 0
KDO1 132213Z 05014KT 13/M07 A3031 RMK A01 T01311065  RH  025%=      5-min Rain = 0
KDO1 132214Z 05013KT 13/M07 A3031 RMK A01 T01311066  RH  025%=      5-min Rain = 0
KDO1 132215Z 05011KT 13/M06 A3031 RMK A01 T01301064  RH  025%=      5-min Rain = 0
KDO1 132216Z 05013KT 13/M06 A3031 RMK A01 T01301062  RH  026%=      5-min Rain = 0
KDO1 132217Z 06013KT 13/M06 A3031 RMK A01 T01291063  RH  026%=      5-min Rain = 0
KDO1 132218Z 05010KT 13/M06 A3031 RMK A01 T01281062  RH  026%=      5-min Rain = 0
KDO1 132219Z 04011KT 13/M06 A3031 RMK A01 T01281061  RH  026%=      5-min Rain = 0
KDO1 132220Z 05011KT 13/M06 A3031 RMK A01 T01281060  RH  027%=      5-min Rain = 0
KDO1 132221Z 05013KT 13/M06 A3031 RMK A01 T01281061  RH  026%=      5-min Rain = 0
KDO1 132222Z 04011KT 13/M06 A303 RMK A01 T01281061  RH  026%=      5-min Rain = 0
KDO1 132223Z 05012KT 13/M06 A303 RMK A01 T01271062  RH  026%=      5-min Rain = 0
KDO1 132224Z 05010KT 13/M06 A303 RMK A01 T01261063  RH  026%=      5-min Rain = 0
KDO1 132225Z 06012KT 13/M06 A303 RMK A01 T01261062  RH  026%=      5-min Rain = 0
KDO1 132226Z 05012KT 13/M06 A303 RMK A01 T01261063  RH  026%=      5-min Rain = 0
KDO1 132227Z 05012KT 13/M06 A303 RMK A01 T01251064  RH  026%=      5-min Rain = 0
KDO1 132228Z 04011KT 13/M06 A303 RMK A01 T01251064  RH  026%=      5-min Rain = 0
KDO1 132229Z 05013KT 13/M06 A303 RMK A01 T01251062  RH  027%=      5-min Rain = 0
KDO1 132230Z 05011KT 12/M06 A303 RMK A01 T01241061  RH  027%=      5-min Rain = 0
KDO1 132231Z 05012KT 13/M06 A303 RMK A01 T01251061  RH  027%=      5-min Rain = 0
KDO1 132232Z 06010KT 13/M06 A303 RMK A01 T01251061  RH  027%=      5-min Rain = 0
KDO1 132233Z 07013KT 13/M06 A303 RMK A01 T01251059  RH  027%=      5-min Rain = 0
KDO1 132234Z 07011KT 13/M06 A303 RMK A01 T01251057  RH  028%=      5-min Rain = 0
KDO1 132235Z 06010KT 13/M06 A303 RMK A01 T01251060  RH  027%=      5-min Rain = 0
KDO1 132236Z 06009KT 12/M06 A303 RMK A01 T01241061  RH  027%=      5-min Rain = 0
KDO1 132237Z 06009KT 13/M06 A303 RMK A01 T01251062  RH  027%=      5-min Rain = 0
KDO1 132238Z 06010KT 13/M06 A303 RMK A01 T01281061  RH  026%=      5-min Rain = 0
KDO1 132239Z 06009KT 13/M06 A303 RMK A01 T01301061  RH  026%=      5-min Rain = 0
KDO1 132240Z 06009KT 13/M06 A303 RMK A01 T01301061  RH  026%=      5-min Rain = 0
KDO1 132241Z 07009KT 13/M06 A303 RMK A01 T01301061  RH  026%=      5-min Rain = 0
KDO1 132242Z 07011KT 13/M06 A303 RMK A01 T01331060  RH  026%=      5-min Rain = 0
KDO1 132243Z 05010KT 13/M06 A303 RMK A01 T01341061  RH  025%=      5-min Rain = 0
KDO1 132244Z 08010KT 14/M06 A303 RMK A01 T01361060  RH  025%=      5-min Rain = 0
KDO1 132245Z 07011KT 14/M06 A303 RMK A01 T01381060  RH  025%=      5-min Rain = 0
KDO1 132246Z 07013KT 14/M06 A303 RMK A01 T01381061  RH  025%=      5-min Rain = 0
KDO1 132247Z 08011KT 14/M06 A303 RMK A01 T01371063  RH  024%=      5-min Rain = 0
KDO1 132248Z 08008KT 14/M06 A303 RMK A01 T01351063  RH  025%=      5-min Rain = 0
KDO1 132249Z 07011KT 14/M06 A303 RMK A01 T01351064  RH  024%=      5-min Rain = 0
KDO1 132250Z 07011KT 13/M07 A303 RMK A01 T01331068  RH  024%=      5-min Rain = 0
KDO1 132251Z 08011KT 13/M07 A303 RMK A01 T01311066  RH  025%=      5-min Rain = 0
KDO1 132252Z 08010KT 13/M07 A303 RMK A01 T01301067  RH  025%=      5-min Rain = 0
KDO1 132253Z 07009KT 13/M07 A303 RMK A01 T01291067  RH  025%=      5-min Rain = 0
KDO1 132254Z 07011KT 13/M07 A303 RMK A01 T01281067  RH  025%=      5-min Rain = 0
KDO1 132255Z 07012KT 13/M07 A303 RMK A01 T01281068  RH  025%=      5-min Rain = 0
KDO1 132256Z 06010KT 13/M07 A303 RMK A01 T01271067  RH  025%=      5-min Rain = 0
KDO1 132257Z 05010KT 13/M07 A303 RMK A01 T01261068  RH  025%=      5-min Rain = 0
KDO1 132258Z 06011KT 13/M07 A303 RMK A01 T01261067  RH  025%=      5-min Rain = 0
KDO1 132259Z 07009KT 13/M07 A303 RMK A01 T01261066  RH  026%=      5-min Rain = 0
KDO1 132300Z 07009KT 13/M07 A303 RMK A01 T01261066  RH  026%=      5-min Rain = 0
KDO1 132301Z 06009KT 13/M07 A303 RMK A01 T01271065  RH  026%=      5-min Rain = 0
KDO1 132302Z 07010KT 13/M07 A303 RMK A01 T01291065  RH  025%=      5-min Rain = 0
KDO1 132303Z 07011KT 13/M06 A303 RMK A01 T01301064  RH  025%=      5-min Rain = 0
KDO1 132304Z 06011KT 13/M06 A303 RMK A01 T01301064  RH  025%=      5-min Rain = 0
KDO1 132305Z 06009KT 13/M06 A303 RMK A01 T01291063  RH  026%=      5-min Rain = 0
KDO1 132306Z 07011KT 13/M06 A303 RMK A01 T01291063  RH  026%=      5-min Rain = 0
KDO1 132307Z 07012KT 13/M06 A303 RMK A01 T01281063  RH  026%=      5-min Rain = 0
KDO1 132308Z 07012KT 13/M06 A303 RMK A01 T01281061  RH  026%=      5-min Rain = 0
KDO1 132309Z 07010KT 13/M06 A303 RMK A01 T01271060  RH  027%=      5-min Rain = 0
KDO1 132310Z 07008KT 13/M06 A303 RMK A01 T01271060  RH  027%=      5-min Rain = 0
KDO1 132311Z 06010KT 13/M06 A303 RMK A01 T01281059  RH  027%=      5-min Rain = 0
KDO1 132312Z 05009KT 13/M06 A303 RMK A01 T01281060  RH  027%=      5-min Rain = 0
KDO1 132313Z 05008KT 13/M06 A303 RMK A01 T01281060  RH  027%=      5-min Rain = 0
KDO1 132314Z 06007KT 13/M06 A303 RMK A01 T01281059  RH  027%=      5-min Rain = 0
KDO1 132315Z 07009KT 13/M06 A303 RMK A01 T01291059  RH  027%=      5-min Rain = 0
KDO1 132316Z 08011KT 13/M06 A303 RMK A01 T01291059  RH  026%=      5-min Rain = 0
KDO1 132317Z 08010KT 13/M06 A303 RMK A01 T01281060  RH  026%=      5-min Rain = 0
KDO1 132318Z 08011KT 13/M06 A303 RMK A01 T01271060  RH  027%=      5-min Rain = 0
KDO1 132319Z 07012KT 13/M06 A303 RMK A01 T01271060  RH  027%=      5-min Rain = 0
KDO1 132320Z 07011KT 13/M06 A303 RMK A01 T01271060  RH  027%=      5-min Rain = 0
KDO1 132321Z 07011KT 13/M06 A303 RMK A01 T01271060  RH  027%=      5-min Rain = 0
KDO1 132322Z 06009KT 13/M06 A303 RMK A01 T01271059  RH  027%=      5-min Rain = 0
KDO1 132323Z 07009KT 13/M06 A303 RMK A01 T01271058  RH  027%=      5-min Rain = 0
KDO1 132324Z 07009KT 13/M06 A303 RMK A01 T01261058  RH  027%=      5-min Rain = 0
KDO1 132325Z 06008KT 13/M06 A303 RMK A01 T01261058  RH  027%=      5-min Rain = 0
KDO1 132326Z 06010KT 13/M06 A303 RMK A01 T01261058  RH  027%=      5-min Rain = 0
KDO1 132327Z 06008KT 13/M06 A303 RMK A01 T01261059  RH  027%=      5-min Rain = 0
KDO1 132328Z 06007KT 13/M06 A303 RMK A01 T01261059  RH  027%=      5-min Rain = 0
KDO1 132329Z 06009KT 13/M06 A303 RMK A01 T01261060  RH  027%=      5-min Rain = 0
KDO1 132330Z 06007KT 13/M06 A303 RMK A01 T01261060  RH  027%=      5-min Rain = 0
KDO1 132331Z 06006KT 13/M06 A303 RMK A01 T01261060  RH  027%=      5-min Rain = 0
KDO1 132332Z 07007KT 13/M06 A303 RMK A01 T01261061  RH  027%=      5-min Rain = 0
KDO1 132333Z 09009KT 13/M06 A303 RMK A01 T01261062  RH  026%=      5-min Rain = 0
KDO1 132334Z 08009KT 13/M06 A303 RMK A01 T01261063  RH  026%=      5-min Rain = 0
KDO1 132335Z 06008KT 13/M06 A303 RMK A01 T01261064  RH  026%=      5-min Rain = 0
KDO1 132336Z 05007KT 13/M06 A303 RMK A01 T01261061  RH  027%=      5-min Rain = 0
KDO1 132337Z 06007KT 13/M06 A303 RMK A01 T01271058  RH  027%=      5-min Rain = 0
KDO1 132338Z 06008KT 13/M06 A303 RMK A01 T01291057  RH  027%=      5-min Rain = 0
KDO1 132339Z 06009KT 13/M06 A303 RMK A01 T01301058  RH  027%=      5-min Rain = 0
KDO1 132340Z 06009KT 13/M06 A303 RMK A01 T01301058  RH  026%=      5-min Rain = 0
KDO1 132341Z 06007KT 13/M06 A303 RMK A01 T01301058  RH  026%=      5-min Rain = 0
KDO1 132342Z 06008KT 13/M06 A303 RMK A01 T01301058  RH  027%=      5-min Rain = 0
KDO1 132343Z 06009KT 13/M06 A303 RMK A01 T01311057  RH  027%=      5-min Rain = 0
KDO1 132344Z 06009KT 13/M06 A303 RMK A01 T01311056  RH  027%=      5-min Rain = 0
KDO1 132345Z 06010KT 13/M06 A303 RMK A01 T01311055  RH  027%=      5-min Rain = 0
KDO1 132346Z 06009KT 13/M06 A303 RMK A01 T01301057  RH  027%=      5-min Rain = 0
KDO1 132347Z 07009KT 13/M06 A303 RMK A01 T01301057  RH  027%=      5-min Rain = 0
KDO1 132348Z 07009KT 13/M06 A303 RMK A01 T01301056  RH  027%=      5-min Rain = 0
KDO1 132349Z 07009KT 13/M06 A303 RMK A01 T01301056  RH  027%=      5-min Rain = 0
KDO1 132350Z 07008KT 13/M06 A303 RMK A01 T01301055  RH  027%=      5-min Rain = 0
KDO1 132351Z 08007KT 13/M06 A303 RMK A01 T01301055  RH  027%=      5-min Rain = 0
KDO1 132352Z 08006KT 13/M05 A303 RMK A01 T01301054  RH  027%=      5-min Rain = 0
KDO1 132353Z 07007KT 13/M05 A303 RMK A01 T01301054  RH  027%=      5-min Rain = 0
KDO1 132354Z 07008KT 13/M05 A303 RMK A01 T01301054  RH  027%=      5-min Rain = 0
KDO1 132355Z 07008KT 13/M05 A303 RMK A01 T01301054  RH  027%=      5-min Rain = 0
KDO1 132356Z 07008KT 13/M05 A303 RMK A01 T01291053  RH  028%=      5-min Rain = 0
KDO1 132357Z 07009KT 13/M05 A303 RMK A01 T01291054  RH  028%=      5-min Rain = 0
KDO1 132358Z 07009KT 13/M06 A303 RMK A01 T01291056  RH  027%=      5-min Rain = 0
KDO1 132359Z 07008KT 13/M06 A303 RMK A01 T01281056  RH  027%=      5-min Rain = 0
KDO1 140000Z 07008KT 13/M06 A303 RMK A01 T01281055  RH  028%=      5-min Rain = 0
KDO1 140001Z 06008KT 13/M06 A303 RMK A01 T01271055  RH  028%=      5-min Rain = 0
KDO1 140002Z 06007KT 13/M06 A303 RMK A01 T01271055  RH  028%=      5-min Rain = 0
KDO1 140003Z 06008KT 13/M06 A303 RMK A01 T01261055  RH  028%=      5-min Rain = 0
KDO1 140004Z 06008KT 13/M06 A3029 RMK A01 T01271055  RH  028%=      5-min Rain = 0
KDO1 140005Z 07009KT 13/M06 A3029 RMK A01 T01281055  RH  028%=      5-min Rain = 0
KDO1 140006Z 08009KT 13/M05 A3029 RMK A01 T01281054  RH  028%=      5-min Rain = 0
KDO1 140007Z 08009KT 13/M05 A3029 RMK A01 T01281053  RH  028%=      5-min Rain = 0
KDO1 140008Z 08010KT 13/M05 A3029 RMK A01 T01281052  RH  028%=      5-min Rain = 0
KDO1 140009Z 09010KT 13/M05 A3029 RMK A01 T01291050  RH  028%=      5-min Rain = 0
KDO1 140010Z 08011KT 13/M05 A3029 RMK A01 T01291049  RH  029%=      5-min Rain = 0
KDO1 140011Z 08010KT 13/M05 A3029 RMK A01 T01281049  RH  029%=      5-min Rain = 0
KDO1 140012Z 08009KT 13/M05 A3029 RMK A01 T01281048  RH  029%=      5-min Rain = 0
KDO1 140013Z 08008KT 13/M05 A3029 RMK A01 T01281048  RH  029%=      5-min Rain = 0
KDO1 140014Z 09009KT 13/M05 A3029 RMK A01 T01271047  RH  029%=      5-min Rain = 0
KDO1 140015Z 08010KT 13/M05 A3029 RMK A01 T01271047  RH  029%=      5-min Rain = 0
KDO1 140016Z 08009KT 13/M05 A3029 RMK A01 T01261048  RH  029%=      5-min Rain = 0
KDO1 140017Z 08008KT 13/M05 A3029 RMK A01 T01251048  RH  029%=      5-min Rain = 0
KDO1 140018Z 09008KT 13/M05 A303 RMK A01 T01251048  RH  030%=      5-min Rain = 0
KDO1 140019Z 08007KT 13/M05 A303 RMK A01 T01251047  RH  030%=      5-min Rain = 0
KDO1 140020Z 08007KT 13/M05 A303 RMK A01 T01251049  RH  029%=      5-min Rain = 0
KDO1 140021Z 09008KT 12/M05 A303 RMK A01 T01241050  RH  029%=      5-min Rain = 0
KDO1 140022Z 07007KT 12/M05 A303 RMK A01 T01241051  RH  029%=      5-min Rain = 0
KDO1 140023Z 08006KT 12/M05 A303 RMK A01 T01241051  RH  029%=      5-min Rain = 0
KDO1 140024Z 08008KT 12/M05 A303 RMK A01 T01241052  RH  029%=      5-min Rain = 0
KDO1 140025Z 08008KT 12/M05 A303 RMK A01 T01241053  RH  029%=      5-min Rain = 0
KDO1 140026Z 08009KT 12/M05 A303 RMK A01 T01241053  RH  029%=      5-min Rain = 0
KDO1 140027Z 07009KT 12/M05 A303 RMK A01 T01231054  RH  029%=      5-min Rain = 0
KDO1 140028Z 08007KT 12/M05 A303 RMK A01 T01231054  RH  029%=      5-min Rain = 0
KDO1 140029Z 08007KT 12/M05 A303 RMK A01 T01221054  RH  029%=      5-min Rain = 0
KDO1 140030Z 08007KT 12/M05 A303 RMK A01 T01221054  RH  029%=      5-min Rain = 0
KDO1 140031Z 08008KT 12/M05 A303 RMK A01 T01221054  RH  029%=      5-min Rain = 0
KDO1 140032Z 08008KT 12/M05 A303 RMK A01 T01221054  RH  029%=      5-min Rain = 0
KDO1 140033Z 08008KT 12/M05 A303 RMK A01 T01221054  RH  029%=      5-min Rain = 0
KDO1 140034Z 08008KT 12/M06 A303 RMK A01 T01221055  RH  029%=      5-min Rain = 0
KDO1 140035Z 08007KT 12/M06 A303 RMK A01 T01211055  RH  029%=      5-min Rain = 0
KDO1 140036Z 08006KT 12/M06 A303 RMK A01 T01211056  RH  029%=      5-min Rain = 0
KDO1 140037Z 08007KT 12/M06 A303 RMK A01 T01211055  RH  029%=      5-min Rain = 0
KDO1 140038Z 08007KT 12/M06 A303 RMK A01 T01211055  RH  029%=      5-min Rain = 0
KDO1 140039Z 08006KT 12/M06 A303 RMK A01 T01211055  RH  029%=      5-min Rain = 0
KDO1 140040Z 08006KT 12/M06 A303 RMK A01 T01201055  RH  029%=      5-min Rain = 0
KDO1 140041Z 08006KT 12/M06 A303 RMK A01 T01201055  RH  029%=      5-min Rain = 0
KDO1 140042Z 09006KT 12/M06 A303 RMK A01 T01191055  RH  029%=      5-min Rain = 0
KDO1 140043Z 09007KT 12/M05 A303 RMK A01 T01191054  RH  029%=      5-min Rain = 0
KDO1 140044Z 08007KT 12/M05 A303 RMK A01 T01191054  RH  029%=      5-min Rain = 0
KDO1 140045Z 08007KT 12/M06 A303 RMK A01 T01181055  RH  029%=      5-min Rain = 0
KDO1 140046Z 09007KT 12/M05 A303 RMK A01 T01181054  RH  030%=      5-min Rain = 0
KDO1 140047Z 09006KT 12/M05 A303 RMK A01 T01181054  RH  030%=      5-min Rain = 0
KDO1 140048Z 09006KT 12/M05 A303 RMK A01 T01171054  RH  030%=      5-min Rain = 0
KDO1 140049Z 09007KT 12/M05 A303 RMK A01 T01171054  RH  030%=      5-min Rain = 0
KDO1 140050Z 10006KT 12/M05 A303 RMK A01 T01171054  RH  030%=      5-min Rain = 0
KDO1 140051Z 10007KT 12/M05 A303 RMK A01 T01171054  RH  030%=      5-min Rain = 0
KDO1 140052Z 10006KT 12/M06 A303 RMK A01 T01161055  RH  030%=      5-min Rain = 0
KDO1 140053Z 10006KT 12/M05 A303 RMK A01 T01161054  RH  030%=      5-min Rain = 0
KDO1 140054Z 10006KT 12/M06 A303 RMK A01 T01161055  RH  030%=      5-min Rain = 0
KDO1 140055Z 10006KT 12/M06 A303 RMK A01 T01151055  RH  030%=      5-min Rain = 0
KDO1 140056Z 10006KT 12/M06 A303 RMK A01 T01151055  RH  030%=      5-min Rain = 0
KDO1 140057Z 11006KT 12/M06 A303 RMK A01 T01151055  RH  030%=      5-min Rain = 0
KDO1 140058Z 11006KT 11/M06 A303 RMK A01 T01141056  RH  030%=      5-min Rain = 0
KDO1 140059Z 10006KT 11/M06 A303 RMK A01 T01141056  RH  030%=      5-min Rain = 0
KDO1 140100Z 10007KT 11/M06 A303 RMK A01 T01141056  RH  030%=      5-min Rain = 0
KDO1 140101Z 11006KT 11/M06 A303 RMK A01 T01141056  RH  030%=      5-min Rain = 0
KDO1 140102Z 11005KT 11/M06 A303 RMK A01 T01141056  RH  030%=      5-min Rain = 0
KDO1 140103Z 10006KT 11/M06 A303 RMK A01 T01131056  RH  030%=      5-min Rain = 0
KDO1 140104Z 10006KT 11/M06 A303 RMK A01 T01131056  RH  030%=      5-min Rain = 0
KDO1 140105Z 10006KT 11/M06 A303 RMK A01 T01131056  RH  030%=      5-min Rain = 0
KDO1 140106Z 10006KT 11/M06 A303 RMK A01 T01131056  RH  030%=      5-min Rain = 0
KDO1 140107Z 10005KT 11/M06 A303 RMK A01 T01131057  RH  030%=      5-min Rain = 0
KDO1 140108Z 10004KT 11/M06 A303 RMK A01 T01131057  RH  030%=      5-min Rain = 0
KDO1 140109Z 11004KT 11/M06 A303 RMK A01 T01131056  RH  030%=      5-min Rain = 0
KDO1 140110Z 11004KT 11/M06 A303 RMK A01 T01131056  RH  030%=      5-min Rain = 0
KDO1 140111Z 10004KT 11/M06 A303 RMK A01 T01131056  RH  030%=      5-min Rain = 0
KDO1 140112Z 10005KT 11/M06 A303 RMK A01 T01121056  RH  030%=      5-min Rain = 0
KDO1 140113Z 10004KT 11/M06 A3031 RMK A01 T01121057  RH  030%=      5-min Rain = 0
KDO1 140114Z 10004KT 11/M06 A3031 RMK A01 T01121056  RH  030%=      5-min Rain = 0
KDO1 140115Z 09004KT 11/M06 A3031 RMK A01 T01121057  RH  030%=      5-min Rain = 0
KDO1 140116Z 09004KT 11/M06 A3031 RMK A01 T01121056  RH  030%=      5-min Rain = 0
KDO1 140117Z 09004KT 11/M06 A3031 RMK A01 T01111057  RH  030%=      5-min Rain = 0
KDO1 140118Z 10004KT 11/M06 A3031 RMK A01 T01111057  RH  030%=      5-min Rain = 0
KDO1 140119Z 09004KT 11/M06 A3031 RMK A01 T01111057  RH  030%=      5-min Rain = 0
KDO1 140120Z 10004KT 11/M06 A3031 RMK A01 T01111057  RH  030%=      5-min Rain = 0
KDO1 140121Z 10004KT 11/M06 A3031 RMK A01 T01111057  RH  030%=      5-min Rain = 0
KDO1 140122Z 10004KT 11/M06 A3031 RMK A01 T01111057  RH  030%=      5-min Rain = 0
KDO1 140123Z 10004KT 11/M06 A3031 RMK A01 T01101058  RH  030%=      5-min Rain = 0
KDO1 140124Z 10004KT 11/M06 A3031 RMK A01 T01101058  RH  030%=      5-min Rain = 0
KDO1 140125Z 09004KT 11/M06 A3031 RMK A01 T01101057  RH  030%=      5-min Rain = 0
KDO1 140126Z 09004KT 11/M06 A3031 RMK A01 T01101058  RH  030%=      5-min Rain = 0
KDO1 140127Z 09004KT 11/M06 A3031 RMK A01 T01101058  RH  030%=      5-min Rain = 0
KDO1 140128Z 10004KT 11/M06 A3031 RMK A01 T01101058  RH  030%=      5-min Rain = 0
KDO1 140129Z 10004KT 11/M06 A3031 RMK A01 T01101058  RH  030%=      5-min Rain = 0
KDO1 140130Z 10004KT 11/M06 A3031 RMK A01 T01091058  RH  030%=      5-min Rain = 0
KDO1 140131Z 10004KT 11/M06 A3031 RMK A01 T01091058  RH  031%=      5-min Rain = 0
KDO1 140132Z 11004KT 11/M06 A3031 RMK A01 T01091058  RH  031%=      5-min Rain = 0
KDO1 140133Z 11004KT 11/M06 A3031 RMK A01 T01091057  RH  031%=      5-min Rain = 0
KDO1 140134Z 11004KT 11/M06 A3031 RMK A01 T01081058  RH  031%=      5-min Rain = 0
KDO1 140135Z 11004KT 11/M06 A3031 RMK A01 T01081058  RH  031%=      5-min Rain = 0
KDO1 140136Z 11004KT 11/M06 A3031 RMK A01 T01081058  RH  031%=      5-min Rain = 0
KDO1 140137Z 11004KT 11/M06 A3031 RMK A01 T01071058  RH  031%=      5-min Rain = 0
KDO1 140138Z 11003KT 11/M06 A3031 RMK A01 T01071058  RH  031%=      5-min Rain = 0
KDO1 140139Z 11003KT 11/M06 A3031 RMK A01 T01071058  RH  031%=      5-min Rain = 0
KDO1 140140Z 11003KT 11/M06 A3031 RMK A01 T01071058  RH  031%=      5-min Rain = 0
KDO1 140141Z 11003KT 11/M06 A3031 RMK A01 T01061058  RH  031%=      5-min Rain = 0
KDO1 140142Z 11003KT 11/M06 A3031 RMK A01 T01051058  RH  031%=      5-min Rain = 0
KDO1 140143Z 10004KT 11/M06 A3031 RMK A01 T01051058  RH  031%=      5-min Rain = 0
KDO1 140144Z 10004KT 10/M06 A3031 RMK A01 T01041058  RH  031%=      5-min Rain = 0
KDO1 140145Z 10004KT 10/M06 A3031 RMK A01 T01041058  RH  031%=      5-min Rain = 0
KDO1 140146Z 10005KT 10/M06 A3031 RMK A01 T01031059  RH  031%=      5-min Rain = 0
KDO1 140147Z 10005KT 10/M06 A3031 RMK A01 T01031059  RH  031%=      5-min Rain = 0
KDO1 140148Z 10005KT 10/M06 A3031 RMK A01 T01031059  RH  031%=      5-min Rain = 0
KDO1 140149Z 10005KT 10/M06 A3031 RMK A01 T01031060  RH  031%=      5-min Rain = 0
KDO1 140150Z 10005KT 10/M06 A3031 RMK A01 T01031060  RH  031%=      5-min Rain = 0
KDO1 140151Z 10004KT 10/M06 A3031 RMK A01 T01021060  RH  031%=      5-min Rain = 0
KDO1 140152Z 10004KT 10/M06 A3031 RMK A01 T01021060  RH  031%=      5-min Rain = 0
KDO1 140153Z 10004KT 10/M06 A3031 RMK A01 T01021059  RH  032%=      5-min Rain = 0
KDO1 140154Z 10003KT 10/M06 A3031 RMK A01 T01011060  RH  032%=      5-min Rain = 0
KDO1 140155Z 11003KT 10/M06 A3031 RMK A01 T01011060  RH  032%=      5-min Rain = 0
KDO1 140156Z 12003KT 10/M06 A3031 RMK A01 T01011060  RH  032%=      5-min Rain = 0
KDO1 140157Z 12003KT 10/M06 A3032 RMK A01 T01011059  RH  032%=      5-min Rain = 0
KDO1 140158Z 12004KT 10/M06 A3032 RMK A01 T01001059  RH  032%=      5-min Rain = 0
KDO1 140159Z 12003KT 10/M06 A3032 RMK A01 T01001059  RH  032%=      5-min Rain = 0
KDO1 140200Z 12003KT 10/M06 A3032 RMK A01 T01001059  RH  032%=      5-min Rain = 0
KDO1 140201Z 12003KT 10/M06 A3032 RMK A01 T01001059  RH  032%=      5-min Rain = 0
KDO1 140202Z 11003KT 10/M06 A3032 RMK A01 T01001059  RH  032%=      5-min Rain = 0
KDO1 140203Z 12003KT 10/M06 A3032 RMK A01 T00991060  RH  032%=      5-min Rain = 0
KDO1 140204Z 11003KT 10/M06 A3032 RMK A01 T01001059  RH  032%=      5-min Rain = 0
KDO1 140205Z 11003KT 10/M06 A3032 RMK A01 T00991060  RH  032%=      5-min Rain = 0
KDO1 140206Z 12004KT 10/M06 A3032 RMK A01 T00991060  RH  032%=      5-min Rain = 0
KDO1 140207Z 11003KT 10/M06 A3032 RMK A01 T00991060  RH  032%=      5-min Rain = 0
KDO1 140208Z 11003KT 10/M06 A3032 RMK A01 T00991060  RH  032%=      5-min Rain = 0
KDO1 140209Z 11003KT 10/M06 A3032 RMK A01 T00991060  RH  032%=      5-min Rain = 0
KDO1 140210Z 11003KT 10/M06 A3032 RMK A01 T00991060  RH  032%=      5-min Rain = 0
KDO1 140211Z 12004KT 10/M06 A3032 RMK A01 T01001060  RH  032%=      5-min Rain = 0
KDO1 140212Z 11004KT 10/M06 A3032 RMK A01 T00991060  RH  032%=      5-min Rain = 0
KDO1 140213Z 11004KT 10/M06 A3032 RMK A01 T00991060  RH  032%=      5-min Rain = 0
KDO1 140214Z 11004KT 10/M06 A3032 RMK A01 T00991060  RH  032%=      5-min Rain = 0
KDO1 140215Z 11004KT 10/M06 A3032 RMK A01 T00991060  RH  032%=      5-min Rain = 0
KDO1 140216Z 12004KT 10/M06 A3032 RMK A01 T00991060  RH  032%=      5-min Rain = 0
KDO1 140217Z 11004KT 10/M06 A3032 RMK A01 T00991060  RH  032%=      5-min Rain = 0
KDO1 140218Z 11004KT 10/M06 A3032 RMK A01 T00991060  RH  032%=      5-min Rain = 0
KDO1 140219Z 11004KT 10/M06 A3032 RMK A01 T00981061  RH  032%=      5-min Rain = 0
KDO1 140220Z 11004KT 10/M06 A3032 RMK A01 T00981060  RH  032%=      5-min Rain = 0
KDO1 140221Z 10003KT 10/M06 A3032 RMK A01 T00981060  RH  032%=      5-min Rain = 0
KDO1 140222Z 10004KT 10/M06 A3032 RMK A01 T00981060  RH  032%=      5-min Rain = 0
KDO1 140223Z 10004KT 10/M06 A3032 RMK A01 T00971060  RH  032%=      5-min Rain = 0
KDO1 140224Z 09004KT 10/M06 A3032 RMK A01 T00971060  RH  032%=      5-min Rain = 0
KDO1 140225Z 09004KT 10/M06 A3032 RMK A01 T00971060  RH  032%=      5-min Rain = 0
KDO1 140226Z 10004KT 10/M06 A3032 RMK A01 T00961061  RH  032%=      5-min Rain = 0
KDO1 140227Z 10005KT 10/M06 A3032 RMK A01 T00971060  RH  032%=      5-min Rain = 0
KDO1 140228Z 09004KT 10/M06 A3032 RMK A01 T00961061  RH  032%=      5-min Rain = 0
KDO1 140229Z 09004KT 10/M06 A3032 RMK A01 T00971060  RH  032%=      5-min Rain = 0
KDO1 140230Z 09004KT 10/M06 A3032 RMK A01 T00961060  RH  033%=      5-min Rain = 0
KDO1 140231Z 09004KT 10/M06 A3032 RMK A01 T00961060  RH  033%=      5-min Rain = 0
KDO1 140232Z 09003KT 10/M06 A3032 RMK A01 T00951060  RH  033%=      5-min Rain = 0
KDO1 140233Z 09003KT 10/M06 A3032 RMK A01 T00951060  RH  033%=      5-min Rain = 0
KDO1 140234Z 09003KT 10/M06 A3032 RMK A01 T00951060  RH  033%=      5-min Rain = 0
KDO1 140235Z 09003KT 10/M06 A3032 RMK A01 T00951060  RH  033%=      5-min Rain = 0
KDO1 140236Z 10003KT 09/M06 A3032 RMK A01 T00941060  RH  033%=      5-min Rain = 0
KDO1 140237Z 10003KT 09/M06 A3032 RMK A01 T00941060  RH  033%=      5-min Rain = 0
KDO1 140238Z 11003KT 09/M06 A3032 RMK A01 T00941060  RH  033%=      5-min Rain = 0
KDO1 140239Z 11003KT 09/M06 A3032 RMK A01 T00941060  RH  033%=      5-min Rain = 0
KDO1 140240Z 10003KT 09/M06 A3032 RMK A01 T00941061  RH  033%=      5-min Rain = 0
KDO1 140241Z 11003KT 09/M06 A3032 RMK A01 T00941061  RH  033%=      5-min Rain = 0
KDO1 140242Z 11002KT 09/M06 A3032 RMK A01 T00941060  RH  033%=      5-min Rain = 0
KDO1 140243Z 11003KT 09/M06 A3032 RMK A01 T00941061  RH  033%=      5-min Rain = 0
KDO1 140244Z 11003KT 09/M06 A3032 RMK A01 T00941061  RH  033%=      5-min Rain = 0
KDO1 140245Z 11002KT 09/M06 A3032 RMK A01 T00941061  RH  033%=      5-min Rain = 0
KDO1 140246Z 10002KT 09/M06 A3032 RMK A01 T00941061  RH  033%=      5-min Rain = 0
KDO1 140247Z 10003KT 09/M06 A3032 RMK A01 T00931061  RH  033%=      5-min Rain = 0
KDO1 140248Z 10002KT 09/M06 A3032 RMK A01 T00941061  RH  033%=      5-min Rain = 0
KDO1 140249Z 11002KT 09/M06 A3032 RMK A01 T00941061  RH  033%=      5-min Rain = 0
KDO1 140250Z 10002KT 09/M06 A3032 RMK A01 T00941061  RH  033%=      5-min Rain = 0
KDO1 140251Z 11002KT 09/M06 A3032 RMK A01 T00941061  RH  033%=      5-min Rain = 0
KDO1 140252Z 11002KT 09/M06 A3032 RMK A01 T00941061  RH  033%=      5-min Rain = 0
KDO1 140253Z 11002KT 09/M06 A3032 RMK A01 T00941061  RH  033%=      5-min Rain = 0
KDO1 140254Z 10003KT 09/M06 A3032 RMK A01 T00941061  RH  033%=      5-min Rain = 0
KDO1 140255Z 10003KT 09/M06 A3032 RMK A01 T00941061  RH  033%=      5-min Rain = 0
KDO1 140256Z 11003KT 09/M06 A3032 RMK A01 T00941061  RH  033%=      5-min Rain = 0
KDO1 140257Z 10002KT 09/M06 A3032 RMK A01 T00941061  RH  033%=      5-min Rain = 0
KDO1 140258Z 11002KT 09/M06 A3032 RMK A01 T00941061  RH  033%=      5-min Rain = 0
KDO1 140259Z 10003KT 09/M06 A3032 RMK A01 T00931061  RH  033%=      5-min Rain = 0
KDO1 140300Z 10003KT 09/M06 A3032 RMK A01 T00931061  RH  033%=      5-min Rain = 0
KDO1 140301Z 11002KT 09/M06 A3032 RMK A01 T00931061  RH  033%=      5-min Rain = 0
KDO1 140302Z 11002KT 09/M06 A3032 RMK A01 T00931061  RH  033%=      5-min Rain = 0
KDO1 140303Z 12003KT 09/M06 A3032 RMK A01 T00931061  RH  033%=      5-min Rain = 0
KDO1 140304Z 11003KT 09/M06 A3032 RMK A01 T00921062  RH  033%=      5-min Rain = 0
KDO1 140305Z 13003KT 09/M06 A3032 RMK A01 T00931062  RH  033%=      5-min Rain = 0
KDO1 140306Z 13003KT 09/M06 A3032 RMK A01 T00921062  RH  033%=      5-min Rain = 0
KDO1 140307Z 13003KT 09/M06 A3032 RMK A01 T00921062  RH  033%=      5-min Rain = 0
KDO1 140308Z 13003KT 09/M06 A3032 RMK A01 T00911062  RH  033%=      5-min Rain = 0
KDO1 140309Z 13003KT 09/M06 A3032 RMK A01 T00911062  RH  033%=      5-min Rain = 0
KDO1 140310Z 13003KT 09/M06 A3032 RMK A01 T00911062  RH  033%=      5-min Rain = 0
KDO1 140311Z 13003KT 09/M06 A3033 RMK A01 T00911062  RH  033%=      5-min Rain = 0
KDO1 140312Z 13002KT 09/M06 A3033 RMK A01 T00911062  RH  033%=      5-min Rain = 0
KDO1 140313Z 13003KT 09/M06 A3033 RMK A01 T00911062  RH  033%=      5-min Rain = 0
KDO1 140314Z 13003KT 09/M06 A3033 RMK A01 T00911062  RH  033%=      5-min Rain = 0
KDO1 140315Z 12003KT 09/M06 A3033 RMK A01 T00911062  RH  033%=      5-min Rain = 0
KDO1 140316Z 12003KT 09/M06 A3033 RMK A01 T00921062  RH  033%=      5-min Rain = 0
KDO1 140317Z 12002KT 09/M06 A3033 RMK A01 T00921062  RH  033%=      5-min Rain = 0
KDO1 140318Z 12003KT 09/M06 A3032 RMK A01 T00911062  RH  033%=      5-min Rain = 0
KDO1 140319Z 13003KT 09/M06 A3032 RMK A01 T00911063  RH  033%=      5-min Rain = 0
KDO1 140320Z 13003KT 09/M06 A3032 RMK A01 T00911062  RH  033%=      5-min Rain = 0
KDO1 140321Z 13003KT 09/M06 A3032 RMK A01 T00901062  RH  034%=      5-min Rain = 0
KDO1 140322Z 13003KT 09/M06 A3032 RMK A01 T00891062  RH  034%=      5-min Rain = 0
KDO1 140323Z 13003KT 09/M06 A3032 RMK A01 T00891062  RH  034%=      5-min Rain = 0
KDO1 140324Z 13003KT 09/M06 A3032 RMK A01 T00881062  RH  034%=      5-min Rain = 0
KDO1 140325Z 13004KT 09/M06 A3032 RMK A01 T00881062  RH  034%=      5-min Rain = 0
KDO1 140326Z 13004KT 09/M06 A3032 RMK A01 T00871062  RH  034%=      5-min Rain = 0
KDO1 140327Z 13004KT 09/M06 A3032 RMK A01 T00871062  RH  034%=      5-min Rain = 0
KDO1 140328Z 12004KT 09/M06 A3032 RMK A01 T00871062  RH  034%=      5-min Rain = 0
KDO1 140329Z 13004KT 09/M06 A3032 RMK A01 T00871062  RH  034%=      5-min Rain = 0
KDO1 140330Z 13003KT 09/M06 A3032 RMK A01 T00861062  RH  034%=      5-min Rain = 0
KDO1 140331Z 13003KT 09/M06 A3032 RMK A01 T00861062  RH  034%=      5-min Rain = 0
KDO1 140332Z 13003KT 09/M06 A3032 RMK A01 T00851063  RH  034%=      5-min Rain = 0
KDO1 140333Z 13003KT 09/M06 A3032 RMK A01 T00851063  RH  035%=      5-min Rain = 0
KDO1 140334Z 13003KT 08/M06 A3032 RMK A01 T00841063  RH  035%=      5-min Rain = 0
KDO1 140335Z 13003KT 08/M06 A3032 RMK A01 T00841063  RH  035%=      5-min Rain = 0
KDO1 140336Z 13003KT 08/M06 A3032 RMK A01 T00841063  RH  035%=      5-min Rain = 0
KDO1 140337Z 13003KT 08/M06 A3032 RMK A01 T00841063  RH  035%=      5-min Rain = 0
KDO1 140338Z 13002KT 08/M06 A3032 RMK A01 T00841063  RH  035%=      5-min Rain = 0
KDO1 140339Z 13003KT 08/M06 A3032 RMK A01 T00831063  RH  035%=      5-min Rain = 0
KDO1 140340Z 13002KT 08/M06 A3032 RMK A01 T00831063  RH  035%=      5-min Rain = 0
KDO1 140341Z 13003KT 08/M06 A3032 RMK A01 T00831064  RH  035%=      5-min Rain = 0
KDO1 140342Z 13003KT 08/M06 A3032 RMK A01 T00831063  RH  035%=      5-min Rain = 0
KDO1 140343Z 13002KT 08/M06 A3032 RMK A01 T00831064  RH  035%=      5-min Rain = 0
KDO1 140344Z 14003KT 08/M06 A3032 RMK A01 T00831064  RH  035%=      5-min Rain = 0
KDO1 140345Z 14003KT 08/M06 A3032 RMK A01 T00831064  RH  035%=      5-min Rain = 0
KDO1 140346Z 14003KT 08/M06 A3032 RMK A01 T00831064  RH  035%=      5-min Rain = 0
KDO1 140347Z 15003KT 08/M06 A3032 RMK A01 T00831064  RH  035%=      5-min Rain = 0
KDO1 140348Z 15003KT 08/M06 A3033 RMK A01 T00831064  RH  035%=      5-min Rain = 0
KDO1 140349Z 15003KT 08/M06 A3033 RMK A01 T00831064  RH  035%=      5-min Rain = 0
KDO1 140350Z 15003KT 08/M06 A3033 RMK A01 T00831064  RH  035%=      5-min Rain = 0
KDO1 140351Z 15003KT 08/M06 A3033 RMK A01 T00831064  RH  035%=      5-min Rain = 0
KDO1 140352Z 15003KT 08/M06 A3033 RMK A01 T00831064  RH  035%=      5-min Rain = 0
KDO1 140353Z 15002KT 08/M06 A3033 RMK A01 T00821064  RH  035%=      5-min Rain = 0
KDO1 140354Z 16002KT 08/M06 A3033 RMK A01 T00821064  RH  035%=      5-min Rain = 0
KDO1 140355Z 16002KT 08/M06 A3033 RMK A01 T00821064  RH  035%=      5-min Rain = 0
KDO1 140356Z 16002KT 08/M06 A3033 RMK A01 T00821064  RH  035%=      5-min Rain = 0
KDO1 140357Z 16002KT 08/M06 A3033 RMK A01 T00821064  RH  035%=      5-min Rain = 0
KDO1 140358Z 16002KT 08/M06 A3033 RMK A01 T00821064  RH  035%=      5-min Rain = 0
KDO1 140359Z 16003KT 08/M06 A3033 RMK A01 T00811064  RH  035%=      5-min Rain = 0
KDO1 140400Z 16003KT 08/M06 A3033 RMK A01 T00811064  RH  035%=      5-min Rain = 0
KDO1 140401Z 16003KT 08/M06 A3033 RMK A01 T00811064  RH  035%=      5-min Rain = 0
KDO1 140402Z 16003KT 08/M06 A3033 RMK A01 T00811064  RH  035%=      5-min Rain = 0
KDO1 140403Z 16002KT 08/M06 A3033 RMK A01 T00811064  RH  035%=      5-min Rain = 0
KDO1 140404Z 16002KT 08/M06 A3033 RMK A01 T00801064  RH  035%=      5-min Rain = 0
KDO1 140405Z 17002KT 08/M06 A3033 RMK A01 T00791064  RH  035%=      5-min Rain = 0
KDO1 140406Z 17002KT 08/M06 A3033 RMK A01 T00791064  RH  036%=      5-min Rain = 0
KDO1 140407Z 18002KT 08/M06 A3033 RMK A01 T00801063  RH  036%=      5-min Rain = 0
KDO1 140408Z 17002KT 08/M06 A3033 RMK A01 T00801063  RH  036%=      5-min Rain = 0
KDO1 140409Z 17002KT 08/M06 A3033 RMK A01 T00791064  RH  036%=      5-min Rain = 0
KDO1 140410Z 17002KT 08/M06 A3033 RMK A01 T00791063  RH  036%=      5-min Rain = 0
KDO1 140411Z 16003KT 08/M06 A3033 RMK A01 T00791063  RH  036%=      5-min Rain = 0
KDO1 140412Z 16003KT 08/M06 A3033 RMK A01 T00791063  RH  036%=      5-min Rain = 0
KDO1 140413Z 16002KT 08/M06 A3033 RMK A01 T00791063  RH  036%=      5-min Rain = 0
KDO1 140414Z 16002KT 08/M06 A3033 RMK A01 T00791063  RH  036%=      5-min Rain = 0
KDO1 140415Z 16002KT 08/M06 A3033 RMK A01 T00781064  RH  036%=      5-min Rain = 0
KDO1 140416Z 16002KT 08/M06 A3033 RMK A01 T00781064  RH  036%=      5-min Rain = 0
KDO1 140417Z 15001KT 08/M07 A3033 RMK A01 T00771065  RH  036%=      5-min Rain = 0
KDO1 140418Z 15001KT 08/M06 A3033 RMK A01 T00761064  RH  036%=      5-min Rain = 0
KDO1 140419Z 14002KT 08/M06 A3032 RMK A01 T00761064  RH  036%=      5-min Rain = 0
KDO1 140420Z 14002KT 08/M06 A3032 RMK A01 T00761064  RH  036%=      5-min Rain = 0
KDO1 140421Z 13002KT 08/M06 A3032 RMK A01 T00761064  RH  036%=      5-min Rain = 0
KDO1 140422Z 13002KT 08/M06 A3032 RMK A01 T00761064  RH  036%=      5-min Rain = 0
KDO1 140423Z 13002KT 08/M06 A3032 RMK A01 T00761063  RH  036%=      5-min Rain = 0
KDO1 140424Z 13002KT 08/M06 A3032 RMK A01 T00761063  RH  037%=      5-min Rain = 0
KDO1 140425Z 13002KT 08/M06 A3032 RMK A01 T00751064  RH  037%=      5-min Rain = 0
KDO1 140426Z 13002KT 08/M06 A3032 RMK A01 T00751064  RH  037%=      5-min Rain = 0
KDO1 140427Z 14002KT 07/M06 A3032 RMK A01 T00741064  RH  037%=      5-min Rain = 0
KDO1 140428Z 14002KT 07/M07 A3032 RMK A01 T00731065  RH  037%=      5-min Rain = 0
KDO1 140429Z 14003KT 07/M07 A3032 RMK A01 T00731065  RH  037%=      5-min Rain = 0
KDO1 140430Z 14003KT 07/M07 A3032 RMK A01 T00721065  RH  037%=      5-min Rain = 0
KDO1 140431Z 14003KT 07/M06 A3032 RMK A01 T00721064  RH  037%=      5-min Rain = 0
KDO1 140432Z 14003KT 07/M06 A3032 RMK A01 T00721064  RH  037%=      5-min Rain = 0
KDO1 140433Z 14003KT 07/M06 A3032 RMK A01 T00721064  RH  037%=      5-min Rain = 0
KDO1 140434Z 14003KT 07/M06 A3032 RMK A01 T00711064  RH  037%=      5-min Rain = 0
KDO1 140435Z 14003KT 07/M06 A3032 RMK A01 T00711064  RH  038%=      5-min Rain = 0
KDO1 140436Z 14003KT 07/M06 A3033 RMK A01 T00711064  RH  038%=      5-min Rain = 0
KDO1 140437Z 14003KT 07/M06 A3033 RMK A01 T00711064  RH  038%=      5-min Rain = 0
KDO1 140438Z 14003KT 07/M06 A3033 RMK A01 T00711064  RH  038%=      5-min Rain = 0
KDO1 140439Z 13003KT 07/M07 A3033 RMK A01 T00701065  RH  038%=      5-min Rain = 0
KDO1 140440Z 13003KT 07/M07 A3033 RMK A01 T00691065  RH  038%=      5-min Rain = 0
KDO1 140441Z 13003KT 07/M07 A3033 RMK A01 T00691065  RH  038%=      5-min Rain = 0
KDO1 140442Z 12002KT 07/M07 A3033 RMK A01 T00681065  RH  038%=      5-min Rain = 0
KDO1 140443Z 11002KT 07/M07 A3033 RMK A01 T00681065  RH  038%=      5-min Rain = 0
KDO1 140444Z 10002KT 07/M07 A3033 RMK A01 T00671065  RH  038%=      5-min Rain = 0
KDO1 140445Z 09002KT 07/M07 A3033 RMK A01 T00671065  RH  038%=      5-min Rain = 0
KDO1 140446Z 07002KT 07/M06 A3033 RMK A01 T00671064  RH  039%=      5-min Rain = 0
KDO1 140447Z 07002KT 07/M07 A3033 RMK A01 T00671065  RH  039%=      5-min Rain = 0
KDO1 140448Z 07002KT 07/M07 A3033 RMK A01 T00661065  RH  039%=      5-min Rain = 0
KDO1 140449Z 07002KT 07/M07 A3033 RMK A01 T00661065  RH  039%=      5-min Rain = 0
KDO1 140450Z 07002KT 07/M07 A3033 RMK A01 T00661065  RH  039%=      5-min Rain = 0
KDO1 140451Z 07002KT 07/M07 A3033 RMK A01 T00661065  RH  039%=      5-min Rain = 0
KDO1 140452Z 08002KT 07/M07 A3033 RMK A01 T00651065  RH  039%=      5-min Rain = 0
KDO1 140453Z 09002KT 06/M07 A3033 RMK A01 T00641066  RH  039%=      5-min Rain = 0
KDO1 140454Z 09002KT 06/M07 A3033 RMK A01 T00631066  RH  039%=      5-min Rain = 0
KDO1 140455Z 09002KT 06/M07 A3033 RMK A01 T00631066  RH  039%=      5-min Rain = 0
KDO1 140456Z 09002KT 06/M07 A3033 RMK A01 T00621066  RH  039%=      5-min Rain = 0
KDO1 140457Z 09001KT 06/M07 A3033 RMK A01 T00621066  RH  039%=      5-min Rain = 0
KDO1 140458Z 09001KT 06/M07 A3033 RMK A01 T00611066  RH  039%=      5-min Rain = 0
KDO1 140459Z 09001KT 06/M07 A3033 RMK A01 T00611067  RH  040%=      5-min Rain = 0

Page generated in 0.1356 seconds.